| time (UTC) | temp C | wind direction | speed KPH | gust KPH | rain 1hr cm | rain 24hr cm | rain mn cm | humidity % | barometer mb |
| 20260509005944 | 6 | 101 | 0.0 | 0.0 | 0.00 | 0.00 | 0.00 | 16 | 1010.7 |
| 20260509005846 | 6 | 101 | 0.0 | 0.0 | 0.00 | 0.00 | 0.00 | 16 | 1010.7 |
| 20260509005809 | 6 | 101 | 0.0 | 0.0 | 0.00 | 0.00 | 0.00 | 17 | 1010.7 |
| 20260509005642 | 6 | 101 | 0.0 | 0.0 | 0.00 | 0.00 | 0.00 | 18 | 1010.7 |
| 20260509005600 | 6 | 101 | 0.0 | 0.0 | 0.00 | 0.00 | 0.00 | 19 | 1010.7 |
| 20260509005459 | 6 | 101 | 0.0 | 0.0 | 0.00 | 0.00 | 0.00 | 19 | 1010.7 |
| 20260509005359 | 6 | 101 | 0.0 | 0.0 | 0.00 | 0.00 | 0.00 | 22 | 1010.7 |
| 20260509005318 | 6 | 101 | 0.0 | 0.0 | 0.00 | 0.00 | 0.00 | 23 | 1010.6 |
| 20260509005125 | 6 | 101 | 0.0 | 0.0 | 0.00 | 0.00 | 0.00 | 23 | 1010.6 |
| 20260509005038 | 6 | 101 | 0.0 | 0.0 | 0.00 | 0.00 | 0.00 | 23 | 1010.6 |
| 20260509004904 | 6 | 101 | 0.0 | 0.0 | 0.00 | 0.00 | 0.00 | 23 | 1010.6 |
| 20260509004802 | 6 | 101 | 0.0 | 0.0 | 0.00 | 0.00 | 0.00 | 22 | 1010.6 |
| 20260509004713 | 6 | 101 | 0.0 | 0.0 | 0.00 | 0.00 | 0.00 | 22 | 1010.6 |
| 20260509004541 | 6 | 101 | 0.0 | 0.0 | 0.00 | 0.00 | 0.00 | 22 | 1010.5 |
| 20260509004439 | 6 | 101 | 0.0 | 0.0 | 0.00 | 0.00 | 0.00 | 22 | 1010.5 |
| 20260509004224 | 6 | 101 | 0.0 | 0.0 | 0.00 | 0.00 | 0.00 | 25 | 1010.5 |
| 20260509004136 | 6 | 101 | 0.0 | 0.0 | 0.00 | 0.00 | 0.00 | 25 | 1010.5 |
| 20260509004039 | 6 | 101 | 0.0 | 0.0 | 0.00 | 0.00 | 0.00 | 25 | 1010.4 |
| 20260509004004 | 6 | 101 | 0.0 | 0.0 | 0.00 | 0.00 | 0.00 | 26 | 1010.4 |
| 20260509003925 | 6 | 101 | 0.0 | 0.0 | 0.00 | 0.00 | 0.00 | 27 | 1010.4 |
| 20260509003727 | 6 | 101 | 0.0 | 0.0 | 0.00 | 0.00 | 0.00 | 28 | 1010.4 |
| 20260509003649 | 6 | 101 | 0.0 | 0.0 | 0.00 | 0.00 | 0.00 | 29 | 1010.4 |
| 20260509003554 | 6 | 101 | 0.0 | 0.0 | 0.00 | 0.00 | 0.00 | 29 | 1010.4 |
| 20260509003454 | 6 | 101 | 0.0 | 0.0 | 0.00 | 0.00 | 0.00 | 29 | 1010.4 |
| 20260509003355 | 7 | 101 | 0.0 | 0.0 | 0.00 | 0.00 | 0.00 | 29 | 1010.4 |
| 20260509003223 | 7 | 101 | 0.0 | 0.0 | 0.00 | 0.00 | 0.00 | 28 | 1010.4 |
| 20260509003139 | 7 | 101 | 0.0 | 0.0 | 0.00 | 0.00 | 0.00 | 27 | 1010.4 |
| 20260509003010 | 7 | 101 | 0.0 | 0.0 | 0.00 | 0.00 | 0.00 | 25 | 1010.3 |
| 20260509002911 | 7 | 101 | 0.0 | 0.0 | 0.00 | 0.00 | 0.00 | 26 | 1010.3 |
| 20260509002815 | 7 | 101 | 0.0 | 0.0 | 0.00 | 0.00 | 0.00 | 27 | 1010.3 |
| 20260509002715 | 7 | 101 | 0.0 | 0.0 | 0.00 | 0.00 | 0.00 | 27 | 1010.3 |
| 20260509002526 | 7 | 101 | 0.0 | 0.0 | 0.00 | 0.00 | 0.00 | 29 | 1010.2 |
| 20260509002440 | 7 | 101 | 0.0 | 0.0 | 0.00 | 0.00 | 0.00 | 29 | 1010.3 |
| 20260509002311 | 7 | 101 | 0.0 | 0.0 | 0.00 | 0.00 | 0.00 | 30 | 1010.3 |
| 20260509002211 | 7 | 101 | 0.0 | 0.0 | 0.00 | 0.00 | 0.00 | 30 | 1010.3 |
| 20260509002037 | 7 | 101 | 0.0 | 0.0 | 0.00 | 0.00 | 0.00 | 30 | 1010.2 |
| 20260509002001 | 7 | 101 | 0.0 | 0.0 | 0.00 | 0.00 | 0.00 | 30 | 1010.2 |
| 20260509001914 | 7 | 101 | 0.0 | 0.0 | 0.00 | 0.00 | 0.00 | 30 | 1010.2 |
| 20260509001724 | 7 | 101 | 0.0 | 0.0 | 0.00 | 0.00 | 0.00 | 31 | 1010.2 |
| 20260509001637 | 7 | 101 | 0.0 | 0.0 | 0.00 | 0.00 | 0.00 | 32 | 1010.1 |
| 20260509001509 | 7 | 101 | 0.0 | 0.0 | 0.00 | 0.00 | 0.00 | 34 | 1010.2 |
| 20260509001430 | 7 | 101 | 0.0 | 0.0 | 0.00 | 0.00 | 0.00 | 35 | 1010.2 |
| 20260509001231 | 7 | 101 | 0.0 | 0.0 | 0.00 | 0.00 | 0.00 | 35 | 1010.1 |
| 20260509001155 | 7 | 101 | 0.0 | 0.0 | 0.00 | 0.00 | 0.00 | 35 | 1010.1 |
| 20260509001058 | 7 | 101 | 0.0 | 0.0 | 0.00 | 0.00 | 0.00 | 34 | 1010.2 |
| 20260509000940 | 7 | 101 | 0.0 | 0.0 | 0.00 | 0.00 | 0.00 | 33 | 1010.1 |
| 20260509000823 | 7 | 101 | 0.0 | 0.0 | 0.00 | 0.00 | 0.00 | 33 | 1010.2 |
| 20260509000746 | 7 | 101 | 0.0 | 0.0 | 0.00 | 0.00 | 0.00 | 32 | 1010.1 |
| 20260509000528 | 8 | 101 | 0.0 | 0.0 | 0.00 | 0.00 | 0.00 | 31 | 1010.2 |
| 20260509000432 | 8 | 101 | 0.0 | 0.0 | 0.00 | 0.00 | 0.00 | 30 | 1010.2 |
| 20260509000334 | 8 | 101 | 0.0 | 0.0 | 0.00 | 0.00 | 0.00 | 31 | 1010.1 |
| 20260509000256 | 8 | 101 | 0.0 | 0.0 | 0.00 | 0.00 | 0.00 | 31 | 1010.1 |
| 20260509000219 | 8 | 101 | 0.0 | 0.0 | 0.00 | 0.00 | 0.00 | 31 | 1010.1 |
| 20260509000120 | 8 | 101 | 0.0 | 0.0 | 0.00 | 0.00 | 0.00 | 31 | 1010.2 |
| 20260509000044 | 8 | 101 | 0.0 | 0.0 | 0.00 | 0.00 | 0.00 | 32 | 1010.2 |
| 20260508235915 | 8 | 101 | 0.0 | 0.0 | 0.00 | 0.00 | 0.00 | 35 | 1010.1 |
| 20260508235831 | 8 | 101 | 0.0 | 1.6 | 0.00 | 0.00 | 0.00 | 35 | 1010.0 |
| 20260508235700 | 8 | 101 | 0.0 | 1.6 | 0.00 | 0.00 | 0.00 | 36 | 1010.1 |
| 20260508235602 | 8 | 101 | 0.0 | 1.6 | 0.00 | 0.00 | 0.00 | 37 | 1010.1 |
| 20260508235412 | 8 | 101 | 0.0 | 1.6 | 0.00 | 0.00 | 0.00 | 37 | 1010.0 |
| 20260508235327 | 8 | 101 | 0.0 | 1.6 | 0.00 | 0.00 | 0.00 | 37 | 1010.0 |
| 20260508235138 | 8 | 102 | 0.0 | 1.6 | 0.00 | 0.00 | 0.00 | 38 | 1010.1 |
| 20260508235032 | 8 | 102 | 0.0 | 1.6 | 0.00 | 0.00 | 0.00 | 38 | 1010.1 |
| 20260508234957 | 8 | 102 | 0.0 | 0.0 | 0.00 | 0.00 | 0.00 | 38 | 1010.1 |
| 20260508234824 | 8 | 102 | 0.0 | 0.0 | 0.00 | 0.00 | 0.00 | 38 | 1010.1 |
| 20260508234739 | 8 | 102 | 0.0 | 0.0 | 0.00 | 0.00 | 0.00 | 36 | 1010.0 |
| 20260508234609 | 8 | 102 | 0.0 | 1.6 | 0.00 | 0.00 | 0.00 | 33 | 1010.0 |
| 20260508234531 | 8 | 102 | 0.0 | 1.6 | 0.00 | 0.00 | 0.00 | 31 | 1010.0 |
| 20260508234335 | 9 | 285 | 0.0 | 1.6 | 0.00 | 0.00 | 0.00 | 31 | 1010.0 |
| 20260508234258 | 9 | 285 | 0.0 | 1.6 | 0.00 | 0.00 | 0.00 | 32 | 1010.0 |
| 20260508234141 | 9 | 284 | 0.0 | 1.6 | 0.00 | 0.00 | 0.00 | 34 | 1010.0 |
| 20260508234104 | 9 | 284 | 0.0 | 1.6 | 0.00 | 0.00 | 0.00 | 35 | 1010.0 |
| 20260508234019 | 9 | 284 | 0.0 | 1.6 | 0.00 | 0.00 | 0.00 | 35 | 1010.0 |
| 20260508233834 | 9 | 283 | 0.0 | 1.6 | 0.00 | 0.00 | 0.00 | 36 | 1010.0 |
| 20260508233747 | 9 | 283 | 0.0 | 1.6 | 0.00 | 0.00 | 0.00 | 36 | 1010.0 |
| 20260508233616 | 9 | 90 | 0.0 | 0.0 | 0.00 | 0.00 | 0.00 | 38 | 1009.9 |
| 20260508233539 | 9 | 90 | 0.0 | 0.0 | 0.00 | 0.00 | 0.00 | 38 | 1009.9 |
| 20260508233408 | 9 | 92 | 0.0 | 0.0 | 0.00 | 0.00 | 0.00 | 39 | 1009.9 |
| 20260508233244 | 9 | 92 | 0.0 | 0.0 | 0.00 | 0.00 | 0.00 | 44 | 1009.9 |
| 20260508233204 | 9 | 92 | 0.0 | 0.0 | 0.00 | 0.00 | 0.00 | 44 | 1009.9 |
| 20260508233108 | 9 | 92 | 0.0 | 0.0 | 0.00 | 0.00 | 0.00 | 46 | 1009.9 |
| 20260508233030 | 10 | 92 | 0.0 | 0.0 | 0.00 | 0.00 | 0.00 | 47 | 1009.9 |
| 20260508232835 | 10 | 129 | 0.0 | 0.0 | 0.00 | 0.00 | 0.00 | 49 | 1009.8 |
| 20260508232742 | 10 | 129 | 0.0 | 0.0 | 0.00 | 0.00 | 0.00 | 49 | 1009.8 |
| 20260508232659 | 10 | 135 | 0.0 | 0.0 | 0.00 | 0.00 | 0.00 | 50 | 1009.8 |
| 20260508232558 | 10 | 135 | 0.0 | 0.0 | 0.00 | 0.00 | 0.00 | 50 | 1009.8 |
| 20260508232430 | 10 | 135 | 0.0 | 1.6 | 0.00 | 0.00 | 0.00 | 50 | 1009.8 |
| 20260508232324 | 10 | 135 | 0.0 | 1.6 | 0.00 | 0.00 | 0.00 | 51 | 1009.8 |
| 20260508232153 | 10 | 135 | 0.0 | 1.6 | 0.00 | 0.00 | 0.00 | 51 | 1009.8 |
| 20260508232035 | 10 | 135 | 0.0 | 1.6 | 0.00 | 0.00 | 0.00 | 51 | 1009.8 |
| 20260508231938 | 10 | 135 | 0.0 | 1.6 | 0.00 | 0.00 | 0.00 | 51 | 1009.8 |
| 20260508231901 | 10 | 135 | 0.0 | 1.6 | 0.00 | 0.00 | 0.00 | 51 | 1009.8 |
| 20260508231723 | 10 | 135 | 0.0 | 1.6 | 0.00 | 0.00 | 0.00 | 51 | 1009.8 |
| 20260508231646 | 10 | 135 | 0.0 | 1.6 | 0.00 | 0.00 | 0.00 | 51 | 1009.8 |
| 20260508231613 | 10 | 135 | 0.0 | 1.6 | 0.00 | 0.00 | 0.00 | 51 | 1009.8 |
| 20260508231519 | 10 | 135 | 0.0 | 1.6 | 0.00 | 0.00 | 0.00 | 51 | 1009.8 |
| 20260508231440 | 10 | 348 | 0.0 | 1.6 | 0.00 | 0.00 | 0.00 | 51 | 1009.8 |
| 20260508231310 | 10 | 348 | 0.0 | 1.6 | 0.00 | 0.00 | 0.00 | 51 | 1009.8 |
| 20260508231226 | 10 | 348 | 0.0 | 1.6 | 0.00 | 0.00 | 0.00 | 51 | 1009.8 |
| 20260508231035 | 10 | 348 | 0.0 | 1.6 | 0.00 | 0.00 | 0.00 | 50 | 1009.8 |
| 20260508231000 | 10 | 348 | 0.0 | 1.6 | 0.00 | 0.00 | 0.00 | 50 | 1009.8 |
| 20260508230915 | 10 | 111 | 0.0 | 1.6 | 0.00 | 0.00 | 0.00 | 50 | 1009.8 |
| 20260508230744 | 10 | 74 | 0.0 | 0.0 | 0.00 | 0.00 | 0.00 | 50 | 1009.8 |
| 20260508230702 | 10 | 74 | 0.0 | 0.0 | 0.00 | 0.00 | 0.00 | 51 | 1009.8 |
| 20260508230617 | 10 | 74 | 0.0 | 0.0 | 0.00 | 0.00 | 0.00 | 51 | 1009.8 |
| 20260508230432 | 10 | 18 | 0.0 | 0.0 | 0.00 | 0.00 | 0.00 | 52 | 1009.8 |
| 20260508230327 | 10 | 30 | 0.0 | 0.0 | 0.00 | 0.00 | 0.00 | 52 | 1009.8 |
| 20260508230251 | 10 | 30 | 0.0 | 0.0 | 0.00 | 0.00 | 0.00 | 51 | 1009.8 |
| 20260508230206 | 10 | 30 | 0.0 | 0.0 | 0.00 | 0.00 | 0.00 | 51 | 1009.8 |
| 20260508230129 | 10 | 30 | 0.0 | 0.0 | 0.00 | 0.00 | 0.00 | 51 | 1009.7 |
| 20260508225931 | 10 | 30 | 0.0 | 0.0 | 0.00 | 0.00 | 0.00 | 53 | 1009.8 |
| 20260508225855 | 10 | 30 | 0.0 | 0.0 | 0.00 | 0.00 | 0.00 | 53 | 1009.8 |
| 20260508225817 | 10 | 30 | 0.0 | 0.0 | 0.00 | 0.00 | 0.00 | 52 | 1009.8 |
| 20260508225649 | 10 | 30 | 0.0 | 0.0 | 0.00 | 0.00 | 0.00 | 52 | 1009.7 |
| 20260508225542 | 10 | 30 | 0.0 | 0.0 | 0.00 | 0.00 | 0.00 | 52 | 1009.7 |
| 20260508225412 | 10 | 30 | 0.0 | 0.0 | 0.00 | 0.00 | 0.00 | 49 | 1009.7 |
| 20260508225318 | 10 | 30 | 0.0 | 1.6 | 0.00 | 0.00 | 0.00 | 50 | 1009.7 |
| 20260508225140 | 10 | 30 | 0.0 | 1.6 | 0.00 | 0.00 | 0.00 | 46 | 1009.7 |
| 20260508225044 | 10 | 30 | 0.0 | 1.6 | 0.00 | 0.00 | 0.00 | 48 | 1009.7 |
| 20260508224927 | 10 | 30 | 0.0 | 1.6 | 0.00 | 0.00 | 0.00 | 50 | 1009.7 |
| 20260508224849 | 10 | 30 | 0.0 | 1.6 | 0.00 | 0.00 | 0.00 | 51 | 1009.7 |
| 20260508224712 | 10 | 30 | 0.0 | 1.6 | 0.00 | 0.00 | 0.00 | 49 | 1009.7 |
| 20260508224634 | 10 | 30 | 0.0 | 1.6 | 0.00 | 0.00 | 0.00 | 49 | 1009.7 |
| 20260508224515 | 10 | 30 | 0.0 | 1.6 | 0.00 | 0.00 | 0.00 | 48 | 1009.7 |
| 20260508224431 | 10 | 30 | 0.0 | 1.6 | 0.00 | 0.00 | 0.00 | 48 | 1009.7 |
| 20260508224226 | 10 | 26 | 0.0 | 1.6 | 0.00 | 0.00 | 0.00 | 48 | 1009.7 |
| 20260508224140 | 10 | 26 | 0.0 | 1.6 | 0.00 | 0.00 | 0.00 | 47 | 1009.7 |
| 20260508224044 | 10 | 26 | 0.0 | 1.6 | 0.00 | 0.00 | 0.00 | 47 | 1009.7 |
| 20260508223946 | 10 | 26 | 0.0 | 1.6 | 0.00 | 0.00 | 0.00 | 47 | 1009.6 |
| 20260508223848 | 10 | 26 | 0.0 | 1.6 | 0.00 | 0.00 | 0.00 | 45 | 1009.6 |
| 20260508223811 | 10 | 26 | 0.0 | 1.6 | 0.00 | 0.00 | 0.00 | 45 | 1009.6 |
| 20260508223656 | 10 | 26 | 0.0 | 1.6 | 0.00 | 0.00 | 0.00 | 44 | 1009.6 |
| 20260508223536 | 10 | 10 | 0.0 | 1.6 | 0.00 | 0.00 | 0.00 | 44 | 1009.6 |
| 20260508223419 | 10 | 23 | 0.0 | 1.6 | 0.00 | 0.00 | 0.00 | 41 | 1009.6 |
| 20260508223339 | 10 | 23 | 0.0 | 1.6 | 0.00 | 0.00 | 0.00 | 41 | 1009.6 |
| 20260508223200 | 10 | 23 | 0.0 | 1.6 | 0.00 | 0.00 | 0.00 | 41 | 1009.6 |
| 20260508223038 | 10 | 23 | 0.0 | 1.6 | 0.00 | 0.00 | 0.00 | 42 | 1009.7 |
| 20260508222921 | 10 | 47 | 0.0 | 1.6 | 0.00 | 0.00 | 0.00 | 42 | 1009.7 |
| 20260508222844 | 10 | 47 | 0.0 | 1.6 | 0.00 | 0.00 | 0.00 | 44 | 1009.7 |
| 20260508222807 | 10 | 47 | 0.0 | 3.2 | 0.00 | 0.00 | 0.00 | 46 | 1009.7 |
| 20260508222641 | 10 | 47 | 0.0 | 3.2 | 0.00 | 0.00 | 0.00 | 44 | 1009.7 |
| 20260508222608 | 10 | 47 | 0.0 | 3.2 | 0.00 | 0.00 | 0.00 | 43 | 1009.7 |
| 20260508222511 | 10 | 27 | 0.0 | 3.2 | 0.00 | 0.00 | 0.00 | 44 | 1009.7 |
| 20260508222333 | 10 | 27 | 0.0 | 3.2 | 0.00 | 0.00 | 0.00 | 43 | 1009.7 |
| 20260508222257 | 10 | 27 | 0.0 | 3.2 | 0.00 | 0.00 | 0.00 | 43 | 1009.7 |
| 20260508222215 | 10 | 27 | 0.0 | 3.2 | 0.00 | 0.00 | 0.00 | 42 | 1009.7 |
| 20260508222027 | 10 | 28 | 1.6 | 3.2 | 0.00 | 0.00 | 0.00 | 42 | 1009.7 |
| 20260508221943 | 10 | 28 | 1.6 | 3.2 | 0.00 | 0.00 | 0.00 | 42 | 1009.7 |
| 20260508221813 | 10 | 30 | 1.6 | 3.2 | 0.00 | 0.00 | 0.00 | 42 | 1009.7 |
| 20260508221734 | 10 | 32 | 1.6 | 3.2 | 0.00 | 0.00 | 0.00 | 42 | 1009.7 |
| 20260508221536 | 10 | 34 | 0.0 | 1.6 | 0.00 | 0.00 | 0.00 | 42 | 1009.7 |
| 20260508221439 | 10 | 34 | 0.0 | 1.6 | 0.00 | 0.00 | 0.00 | 43 | 1009.7 |
| 20260508221325 | 10 | 34 | 0.0 | 1.6 | 0.00 | 0.00 | 0.00 | 41 | 1009.8 |
| 20260508221245 | 10 | 34 | 0.0 | 1.6 | 0.00 | 0.00 | 0.00 | 41 | 1009.8 |
| 20260508221117 | 10 | 25 | 0.0 | 1.6 | 0.00 | 0.00 | 0.00 | 42 | 1009.7 |
| 20260508221036 | 10 | 25 | 0.0 | 1.6 | 0.00 | 0.00 | 0.00 | 45 | 1009.7 |
| 20260508220907 | 10 | 25 | 0.0 | 1.6 | 0.00 | 0.00 | 0.00 | 46 | 1009.7 |
| 20260508220828 | 10 | 32 | 0.0 | 1.6 | 0.00 | 0.00 | 0.00 | 44 | 1009.7 |
| 20260508220631 | 10 | 36 | 0.0 | 3.2 | 0.00 | 0.00 | 0.00 | 43 | 1009.7 |
| 20260508220553 | 10 | 36 | 0.0 | 4.8 | 0.00 | 0.00 | 0.00 | 43 | 1009.7 |
| 20260508220438 | 10 | 36 | 0.0 | 8.0 | 0.00 | 0.00 | 0.00 | 42 | 1009.7 |
| 20260508220358 | 10 | 36 | 0.0 | 8.0 | 0.00 | 0.00 | 0.00 | 41 | 1009.7 |
| 20260508220243 | 10 | 36 | 0.0 | 8.0 | 0.00 | 0.00 | 0.00 | 41 | 1009.7 |
| 20260508220204 | 10 | 36 | 0.0 | 8.0 | 0.00 | 0.00 | 0.00 | 42 | 1009.6 |
| 20260508220035 | 10 | 36 | 0.0 | 8.0 | 0.00 | 0.00 | 0.00 | 44 | 1009.7 |
| 20260508215928 | 10 | 36 | 1.6 | 9.7 | 0.00 | 0.00 | 0.00 | 42 | 1009.6 |
| 20260508215751 | 10 | 360 | 4.8 | 9.7 | 0.00 | 0.00 | 0.00 | 41 | 1009.6 |
| 20260508215632 | 11 | 346 | 4.8 | 9.7 | 0.00 | 0.00 | 0.00 | 42 | 1009.6 |
| 20260508215535 | 11 | 342 | 4.8 | 9.7 | 0.00 | 0.00 | 0.00 | 42 | 1009.6 |
| 20260508215459 | 11 | 327 | 3.2 | 9.7 | 0.00 | 0.00 | 0.00 | 43 | 1009.6 |
| 20260508215420 | 11 | 329 | 3.2 | 9.7 | 0.00 | 0.00 | 0.00 | 43 | 1009.6 |
| 20260508215325 | 11 | 28 | 3.2 | 9.7 | 0.00 | 0.00 | 0.00 | 42 | 1009.6 |
| 20260508215225 | 11 | 338 | 4.8 | 9.7 | 0.00 | 0.00 | 0.00 | 42 | 1009.6 |
| 20260508215030 | 11 | 341 | 8.0 | 9.7 | 0.00 | 0.00 | 0.00 | 41 | 1009.6 |
| 20260508214932 | 11 | 355 | 6.4 | 9.7 | 0.00 | 0.00 | 0.00 | 43 | 1009.6 |
| 20260508214835 | 11 | 348 | 4.8 | 8.0 | 0.00 | 0.00 | 0.00 | 44 | 1009.6 |
| 20260508214801 | 11 | 350 | 3.2 | 8.0 | 0.00 | 0.00 | 0.00 | 44 | 1009.6 |
| 20260508214724 | 11 | 350 | 3.2 | 8.0 | 0.00 | 0.00 | 0.00 | 43 | 1009.6 |
| 20260508214523 | 11 | 355 | 1.6 | 8.0 | 0.00 | 0.00 | 0.00 | 42 | 1009.6 |
| 20260508214447 | 11 | 341 | 3.2 | 8.0 | 0.00 | 0.00 | 0.00 | 43 | 1009.6 |
| 20260508214332 | 11 | 310 | 1.6 | 8.0 | 0.00 | 0.00 | 0.00 | 42 | 1009.5 |
| 20260508214252 | 11 | 331 | 1.6 | 8.0 | 0.00 | 0.00 | 0.00 | 44 | 1009.5 |
| 20260508214102 | 11 | 321 | 3.2 | 8.0 | 0.00 | 0.00 | 0.00 | 41 | 1009.6 |
| 20260508214017 | 11 | 325 | 3.2 | 8.0 | 0.00 | 0.00 | 0.00 | 41 | 1009.5 |
| 20260508213826 | 11 | 336 | 3.2 | 8.0 | 0.00 | 0.00 | 0.00 | 43 | 1009.6 |
| 20260508213742 | 11 | 345 | 3.2 | 8.0 | 0.00 | 0.00 | 0.00 | 43 | 1009.6 |
| 20260508213617 | 11 | 311 | 4.8 | 8.0 | 0.00 | 0.00 | 0.00 | 40 | 1009.6 |
| 20260508213539 | 11 | 311 | 4.8 | 8.0 | 0.00 | 0.00 | 0.00 | 41 | 1009.6 |
| 20260508213341 | 11 | 330 | 4.8 | 8.0 | 0.00 | 0.00 | 0.00 | 41 | 1009.6 |
| 20260508213304 | 11 | 53 | 4.8 | 8.0 | 0.00 | 0.00 | 0.00 | 41 | 1009.6 |
| 20260508213209 | 11 | 17 | 4.8 | 8.0 | 0.00 | 0.00 | 0.00 | 41 | 1009.5 |
| 20260508213131 | 11 | 16 | 4.8 | 8.0 | 0.00 | 0.00 | 0.00 | 40 | 1009.6 |
| 20260508212935 | 11 | 321 | 3.2 | 8.0 | 0.00 | 0.00 | 0.00 | 42 | 1009.6 |
| 20260508212837 | 11 | 296 | 3.2 | 8.0 | 0.00 | 0.00 | 0.00 | 40 | 1009.5 |
| 20260508212722 | 11 | 225 | 4.8 | 8.0 | 0.00 | 0.00 | 0.00 | 42 | 1009.6 |
| 20260508212649 | 11 | 240 | 4.8 | 8.0 | 0.00 | 0.00 | 0.00 | 39 | 1009.6 |
| 20260508212521 | 11 | 294 | 3.2 | 8.0 | 0.00 | 0.00 | 0.00 | 40 | 1009.5 |
| 20260508212436 | 11 | 230 | 3.2 | 8.0 | 0.00 | 0.00 | 0.00 | 40 | 1009.6 |
| 20260508212307 | 11 | 279 | 1.6 | 6.4 | 0.00 | 0.00 | 0.00 | 40 | 1009.5 |
| 20260508212229 | 11 | 284 | 3.2 | 6.4 | 0.00 | 0.00 | 0.00 | 39 | 1009.5 |
| 20260508212031 | 11 | 271 | 3.2 | 6.4 | 0.00 | 0.00 | 0.00 | 40 | 1009.5 |
| 20260508211954 | 11 | 276 | 1.6 | 6.4 | 0.00 | 0.00 | 0.00 | 43 | 1009.5 |
| 20260508211859 | 11 | 287 | 3.2 | 6.4 | 0.00 | 0.00 | 0.00 | 41 | 1009.5 |
| 20260508211822 | 11 | 298 | 3.2 | 6.4 | 0.00 | 0.00 | 0.00 | 40 | 1009.4 |
| 20260508211652 | 11 | 298 | 3.2 | 6.4 | 0.00 | 0.00 | 0.00 | 42 | 1009.4 |
| 20260508211606 | 11 | 322 | 3.2 | 6.4 | 0.00 | 0.00 | 0.00 | 40 | 1009.4 |
| 20260508211449 | 11 | 338 | 4.8 | 6.4 | 0.00 | 0.00 | 0.00 | 39 | 1009.4 |
| 20260508211353 | 11 | 355 | 3.2 | 6.4 | 0.00 | 0.00 | 0.00 | 42 | 1009.4 |
| 20260508211255 | 11 | 13 | 3.2 | 6.4 | 0.00 | 0.00 | 0.00 | 42 | 1009.4 |
| 20260508211138 | 11 | 17 | 1.6 | 8.0 | 0.00 | 0.00 | 0.00 | 43 | 1009.4 |
| 20260508211102 | 11 | 29 | 1.6 | 8.0 | 0.00 | 0.00 | 0.00 | 43 | 1009.4 |
| 20260508211017 | 11 | 45 | 1.6 | 9.7 | 0.00 | 0.00 | 0.00 | 43 | 1009.4 |
| 20260508210828 | 10 | 15 | 1.6 | 9.7 | 0.00 | 0.00 | 0.00 | 43 | 1009.4 |
| 20260508210721 | 10 | 24 | 1.6 | 9.7 | 0.00 | 0.00 | 0.00 | 41 | 1009.4 |
| 20260508210655 | 10 | 24 | 1.6 | 9.7 | 0.00 | 0.00 | 0.00 | 41 | 1009.4 |
| 20260508210600 | 10 | 5 | 3.2 | 9.7 | 0.00 | 0.00 | 0.00 | 40 | 1009.4 |
| 20260508210520 | 10 | 5 | 4.8 | 9.7 | 0.00 | 0.00 | 0.00 | 41 | 1009.4 |
| 20260508210336 | 10 | 13 | 6.4 | 9.7 | 0.00 | 0.00 | 0.00 | 41 | 1009.4 |
| 20260508210229 | 10 | 32 | 6.4 | 9.7 | 0.00 | 0.00 | 0.00 | 42 | 1009.4 |
| 20260508210153 | 10 | 14 | 4.8 | 11.3 | 0.00 | 0.00 | 0.00 | 42 | 1009.4 |
| 20260508210057 | 10 | 36 | 3.2 | 12.9 | 0.00 | 0.00 | 0.00 | 41 | 1009.4 |
| 20260508205958 | 10 | 350 | 3.2 | 12.9 | 0.00 | 0.00 | 0.00 | 41 | 1009.4 |
| 20260508205921 | 10 | 350 | 3.2 | 16.1 | 0.00 | 0.00 | 0.00 | 41 | 1009.4 |
| 20260508205723 | 10 | 308 | 1.6 | 16.1 | 0.00 | 0.00 | 0.00 | 39 | 1009.5 |
| 20260508205617 | 10 | 308 | 3.2 | 16.1 | 0.00 | 0.00 | 0.00 | 39 | 1009.4 |
| 20260508205555 | 10 | 308 | 4.8 | 16.1 | 0.00 | 0.00 | 0.00 | 39 | 1009.4 |
| 20260508205500 | 10 | 311 | 6.4 | 16.1 | 0.00 | 0.00 | 0.00 | 41 | 1009.5 |
| 20260508205341 | 10 | 346 | 8.0 | 16.1 | 0.00 | 0.00 | 0.00 | 41 | 1009.4 |
| 20260508205224 | 10 | 344 | 9.7 | 16.1 | 0.00 | 0.00 | 0.00 | 42 | 1009.4 |
| 20260508205148 | 10 | 325 | 11.3 | 16.1 | 0.00 | 0.00 | 0.00 | 41 | 1009.4 |
| 20260508205024 | 10 | 346 | 8.0 | 16.1 | 0.00 | 0.00 | 0.00 | 41 | 1009.4 |
| 20260508204929 | 10 | 25 | 4.8 | 16.1 | 0.00 | 0.00 | 0.00 | 42 | 1009.4 |
| 20260508204850 | 10 | 351 | 4.8 | 19.3 | 0.00 | 0.00 | 0.00 | 43 | 1009.4 |
| 20260508204751 | 10 | 278 | 4.8 | 19.3 | 0.00 | 0.00 | 0.00 | 41 | 1009.4 |
| 20260508204717 | 10 | 299 | 6.4 | 19.3 | 0.00 | 0.00 | 0.00 | 41 | 1009.4 |
| 20260508204621 | 11 | 301 | 9.7 | 19.3 | 0.00 | 0.00 | 0.00 | 40 | 1009.4 |
| 20260508204542 | 11 | 321 | 9.7 | 19.3 | 0.00 | 0.00 | 0.00 | 39 | 1009.4 |
| 20260508204324 | 11 | 337 | 4.8 | 19.3 | 0.00 | 0.00 | 0.00 | 39 | 1009.3 |
| 20260508204228 | 11 | 273 | 4.8 | 19.3 | 0.00 | 0.00 | 0.00 | 40 | 1009.4 |
| 20260508204112 | 11 | 313 | 9.7 | 19.3 | 0.00 | 0.00 | 0.00 | 39 | 1009.4 |
| 20260508204047 | 11 | 334 | 9.7 | 19.3 | 0.00 | 0.00 | 0.00 | 40 | 1009.3 |
| 20260508203929 | 11 | 341 | 6.4 | 16.1 | 0.00 | 0.00 | 0.00 | 41 | 1009.4 |
| 20260508203852 | 11 | 32 | 6.4 | 9.7 | 0.00 | 0.00 | 0.00 | 41 | 1009.4 |
| 20260508203815 | 11 | 345 | 4.8 | 8.0 | 0.00 | 0.00 | 0.00 | 41 | 1009.3 |
| 20260508203641 | 11 | 340 | 4.8 | 6.4 | 0.00 | 0.00 | 0.00 | 38 | 1009.4 |
| 20260508203605 | 11 | 344 | 4.8 | 6.4 | 0.00 | 0.00 | 0.00 | 38 | 1009.4 |
| 20260508203519 | 11 | 335 | 4.8 | 6.4 | 0.00 | 0.00 | 0.00 | 39 | 1009.3 |
| 20260508203330 | 11 | 324 | 4.8 | 6.4 | 0.00 | 0.00 | 0.00 | 42 | 1009.4 |
| 20260508203245 | 11 | 350 | 3.2 | 8.0 | 0.00 | 0.00 | 0.00 | 41 | 1009.4 |
| 20260508203115 | 11 | 269 | 1.6 | 8.0 | 0.00 | 0.00 | 0.00 | 42 | 1009.3 |
| 20260508203036 | 11 | 289 | 3.2 | 8.0 | 0.00 | 0.00 | 0.00 | 40 | 1009.3 |
| 20260508202907 | 11 | 22 | 1.6 | 8.0 | 0.00 | 0.00 | 0.00 | 41 | 1009.3 |
| 20260508202821 | 11 | 265 | 0.0 | 8.0 | 0.00 | 0.00 | 0.00 | 41 | 1009.3 |
| 20260508202633 | 11 | 265 | 3.2 | 8.0 | 0.00 | 0.00 | 0.00 | 39 | 1009.3 |
| 20260508202532 | 11 | 198 | 4.8 | 8.0 | 0.00 | 0.00 | 0.00 | 39 | 1009.3 |
| 20260508202453 | 11 | 195 | 4.8 | 8.0 | 0.00 | 0.00 | 0.00 | 39 | 1009.3 |
| 20260508202409 | 11 | 210 | 4.8 | 12.9 | 0.00 | 0.00 | 0.00 | 39 | 1009.3 |
| 20260508202331 | 11 | 269 | 4.8 | 12.9 | 0.00 | 0.00 | 0.00 | 41 | 1009.3 |
| 20260508202135 | 11 | 223 | 3.2 | 16.1 | 0.00 | 0.00 | 0.00 | 39 | 1009.3 |
| 20260508202037 | 11 | 284 | 3.2 | 17.7 | 0.00 | 0.00 | 0.00 | 40 | 1009.3 |
| 20260508201940 | 11 | 274 | 3.2 | 17.7 | 0.00 | 0.00 | 0.00 | 41 | 1009.3 |
| 20260508201844 | 11 | 340 | 3.2 | 17.7 | 0.00 | 0.00 | 0.00 | 41 | 1009.3 |
| 20260508201724 | 11 | 355 | 4.8 | 17.7 | 0.00 | 0.00 | 0.00 | 39 | 1009.3 |
| 20260508201628 | 11 | 333 | 6.4 | 17.7 | 0.00 | 0.00 | 0.00 | 38 | 1009.3 |
| 20260508201550 | 11 | 331 | 6.4 | 17.7 | 0.00 | 0.00 | 0.00 | 38 | 1009.3 |
| 20260508201339 | 11 | 317 | 12.9 | 17.7 | 0.00 | 0.00 | 0.00 | 40 | 1009.3 |
| 20260508201231 | 11 | 328 | 9.7 | 17.7 | 0.00 | 0.00 | 0.00 | 41 | 1009.2 |
| 20260508201154 | 11 | 355 | 6.4 | 16.1 | 0.00 | 0.00 | 0.00 | 41 | 1009.2 |
| 20260508201059 | 11 | 63 | 1.6 | 9.7 | 0.00 | 0.00 | 0.00 | 40 | 1009.3 |
| 20260508200939 | 11 | 94 | 3.2 | 9.7 | 0.00 | 0.00 | 0.00 | 40 | 1009.3 |
| 20260508200846 | 10 | 339 | 3.2 | 12.9 | 0.00 | 0.00 | 0.00 | 41 | 1009.3 |
| 20260508200811 | 10 | 326 | 3.2 | 16.1 | 0.00 | 0.00 | 0.00 | 40 | 1009.3 |
| 20260508200642 | 10 | 221 | 4.8 | 16.1 | 0.00 | 0.00 | 0.00 | 40 | 1009.3 |
| 20260508200535 | 10 | 265 | 3.2 | 16.1 | 0.00 | 0.00 | 0.00 | 40 | 1009.3 |
| 20260508200407 | 10 | 244 | 4.8 | 16.1 | 0.00 | 0.00 | 0.00 | 41 | 1009.3 |
| 20260508200328 | 10 | 207 | 6.4 | 16.1 | 0.00 | 0.00 | 0.00 | 39 | 1009.3 |
| 20260508200159 | 10 | 226 | 9.7 | 16.1 | 0.00 | 0.00 | 0.00 | 40 | 1009.4 |
| 20260508200032 | 10 | 196 | 9.7 | 16.1 | 0.00 | 0.00 | 0.00 | 39 | 1009.4 |
| 20260508195956 | 11 | 188 | 8.0 | 17.7 | 0.00 | 0.00 | 0.00 | 40 | 1009.4 |
| 20260508195841 | 11 | 222 | 4.8 | 16.1 | 0.00 | 0.00 | 0.00 | 40 | 1009.3 |
| 20260508195737 | 11 | 197 | 6.4 | 16.1 | 0.00 | 0.00 | 0.00 | 39 | 1009.4 |
| 20260508195617 | 11 | 217 | 6.4 | 16.1 | 0.00 | 0.00 | 0.00 | 39 | 1009.4 |
| 20260508195529 | 11 | 274 | 6.4 | 14.5 | 0.00 | 0.00 | 0.00 | 40 | 1009.4 |
| 20260508195433 | 11 | 282 | 6.4 | 14.5 | 0.00 | 0.00 | 0.00 | 40 | 1009.4 |
| 20260508195355 | 11 | 290 | 6.4 | 14.5 | 0.00 | 0.00 | 0.00 | 41 | 1009.4 |
| 20260508195317 | 11 | 251 | 6.4 | 14.5 | 0.00 | 0.00 | 0.00 | 41 | 1009.4 |
| 20260508195142 | 11 | 306 | 3.2 | 16.1 | 0.00 | 0.00 | 0.00 | 41 | 1009.4 |
| 20260508195042 | 11 | 74 | 4.8 | 16.1 | 0.00 | 0.00 | 0.00 | 40 | 1009.4 |
| 20260508194925 | 11 | 239 | 6.4 | 19.3 | 0.00 | 0.00 | 0.00 | 40 | 1009.4 |
| 20260508194830 | 11 | 248 | 6.4 | 19.3 | 0.00 | 0.00 | 0.00 | 40 | 1009.4 |
| 20260508194732 | 11 | 331 | 6.4 | 19.3 | 0.00 | 0.00 | 0.00 | 41 | 1009.5 |
| 20260508194655 | 10 | 348 | 6.4 | 19.3 | 0.00 | 0.00 | 0.00 | 39 | 1009.5 |
| 20260508194617 | 11 | 299 | 8.0 | 19.3 | 0.00 | 0.00 | 0.00 | 40 | 1009.4 |
| 20260508194406 | 11 | 296 | 8.0 | 19.3 | 0.00 | 0.00 | 0.00 | 40 | 1009.4 |
| 20260508194322 | 11 | 327 | 9.7 | 19.3 | 0.00 | 0.00 | 0.00 | 43 | 1009.4 |
| 20260508194133 | 11 | 360 | 11.3 | 19.3 | 0.00 | 0.00 | 0.00 | 41 | 1009.4 |
| 20260508194048 | 11 | 15 | 8.0 | 19.3 | 0.00 | 0.00 | 0.00 | 42 | 1009.4 |
| 20260508193839 | 11 | 322 | 4.8 | 12.9 | 0.00 | 0.00 | 0.00 | 42 | 1009.4 |
| 20260508193754 | 11 | 302 | 1.6 | 8.0 | 0.00 | 0.00 | 0.00 | 43 | 1009.3 |
| 20260508193522 | 11 | 213 | 4.8 | 8.0 | 0.00 | 0.00 | 0.00 | 40 | 1009.2 |
| 20260508193425 | 11 | 213 | 3.2 | 8.0 | 0.00 | 0.00 | 0.00 | 39 | 1009.3 |
| 20260508193329 | 11 | 211 | 3.2 | 9.7 | 0.00 | 0.00 | 0.00 | 40 | 1009.2 |
| 20260508193252 | 11 | 258 | 3.2 | 9.7 | 0.00 | 0.00 | 0.00 | 40 | 1009.2 |
| 20260508193214 | 11 | 269 | 3.2 | 9.7 | 0.00 | 0.00 | 0.00 | 42 | 1009.2 |
| 20260508193036 | 11 | 292 | 1.6 | 9.7 | 0.00 | 0.00 | 0.00 | 45 | 1009.3 |
| 20260508192939 | 11 | 257 | 4.8 | 9.7 | 0.00 | 0.00 | 0.00 | 44 | 1009.4 |
| 20260508192825 | 11 | 325 | 6.4 | 9.7 | 0.00 | 0.00 | 0.00 | 44 | 1009.3 |
| 20260508192746 | 11 | 323 | 6.4 | 9.7 | 0.00 | 0.00 | 0.00 | 44 | 1009.3 |
| 20260508192621 | 11 | 333 | 8.0 | 9.7 | 0.00 | 0.00 | 0.00 | 44 | 1009.4 |
| 20260508192537 | 10 | 355 | 8.0 | 14.5 | 0.00 | 0.00 | 0.00 | 43 | 1009.4 |
| 20260508192406 | 10 | 355 | 6.4 | 14.5 | 0.00 | 0.00 | 0.00 | 43 | 1009.3 |
| 20260508192330 | 10 | 351 | 6.4 | 14.5 | 0.00 | 0.00 | 0.00 | 43 | 1009.4 |
| 20260508192132 | 10 | 298 | 6.4 | 16.1 | 0.00 | 0.00 | 0.00 | 43 | 1009.4 |
| 20260508192056 | 10 | 325 | 4.8 | 16.1 | 0.00 | 0.00 | 0.00 | 43 | 1009.4 |
| 20260508191940 | 10 | 5 | 1.6 | 17.7 | 0.00 | 0.00 | 0.00 | 44 | 1009.3 |
| 20260508191902 | 10 | 5 | 4.8 | 17.7 | 0.00 | 0.00 | 0.00 | 42 | 1009.3 |
| 20260508191725 | 10 | 360 | 9.7 | 17.7 | 0.00 | 0.00 | 0.00 | 42 | 1009.4 |
| 20260508191648 | 10 | 347 | 9.7 | 17.7 | 0.00 | 0.00 | 0.00 | 42 | 1009.4 |
| 20260508191614 | 10 | 326 | 9.7 | 17.7 | 0.00 | 0.00 | 0.00 | 42 | 1009.4 |
| 20260508191438 | 11 | 308 | 11.3 | 17.7 | 0.00 | 0.00 | 0.00 | 42 | 1009.4 |
| 20260508191341 | 11 | 329 | 8.0 | 17.7 | 0.00 | 0.00 | 0.00 | 42 | 1009.4 |
| 20260508191245 | 11 | 300 | 11.3 | 17.7 | 0.00 | 0.00 | 0.00 | 42 | 1009.4 |
| 20260508191126 | 11 | 342 | 8.0 | 17.7 | 0.00 | 0.00 | 0.00 | 45 | 1009.4 |
| 20260508191041 | 11 | 342 | 4.8 | 16.1 | 0.00 | 0.00 | 0.00 | 45 | 1009.4 |
| 20260508190945 | 10 | 344 | 3.2 | 17.7 | 0.00 | 0.00 | 0.00 | 44 | 1009.4 |
| 20260508190842 | 10 | 339 | 1.6 | 17.7 | 0.00 | 0.00 | 0.00 | 43 | 1009.4 |
| 20260508190727 | 10 | 314 | 3.2 | 17.7 | 0.00 | 0.00 | 0.00 | 43 | 1009.4 |
| 20260508190651 | 10 | 295 | 4.8 | 17.7 | 0.00 | 0.00 | 0.00 | 44 | 1009.4 |
| 20260508190611 | 10 | 319 | 11.3 | 17.7 | 0.00 | 0.00 | 0.00 | 45 | 1009.4 |
| 20260508190421 | 10 | 332 | 11.3 | 17.7 | 0.00 | 0.00 | 0.00 | 45 | 1009.4 |
| 20260508190337 | 10 | 345 | 9.7 | 17.7 | 0.00 | 0.00 | 0.00 | 44 | 1009.3 |
| 20260508190207 | 10 | 355 | 8.0 | 19.3 | 0.00 | 0.00 | 0.00 | 44 | 1009.3 |
| 20260508190119 | 10 | 348 | 4.8 | 19.3 | 0.00 | 0.00 | 0.00 | 44 | 1009.4 |
| 20260508185941 | 10 | 30 | 3.2 | 19.3 | 0.00 | 0.00 | 0.00 | 46 | 1009.4 |
| 20260508185905 | 10 | 342 | 6.4 | 19.3 | 0.00 | 0.00 | 0.00 | 45 | 1009.4 |
| 20260508185726 | 10 | 328 | 8.0 | 19.3 | 0.00 | 0.00 | 0.00 | 45 | 1009.4 |
| 20260508185648 | 10 | 288 | 8.0 | 19.3 | 0.00 | 0.00 | 0.00 | 44 | 1009.4 |
| 20260508185434 | 10 | 22 | 8.0 | 19.3 | 0.00 | 0.00 | 0.00 | 45 | 1009.4 |
| 20260508185358 | 10 | 27 | 4.8 | 12.9 | 0.00 | 0.00 | 0.00 | 44 | 1009.4 |
| 20260508185305 | 10 | 44 | 3.2 | 9.7 | 0.00 | 0.00 | 0.00 | 45 | 1009.5 |
| 20260508185144 | 10 | 166 | 3.2 | 9.7 | 0.00 | 0.00 | 0.00 | 43 | 1009.5 |
| 20260508185048 | 10 | 177 | 3.2 | 12.9 | 0.00 | 0.00 | 0.00 | 43 | 1009.5 |
| 20260508184930 | 10 | 298 | 4.8 | 12.9 | 0.00 | 0.00 | 0.00 | 43 | 1009.5 |
| 20260508184824 | 10 | 331 | 3.2 | 12.9 | 0.00 | 0.00 | 0.00 | 47 | 1009.5 |
| 20260508184744 | 10 | 19 | 3.2 | 12.9 | 0.00 | 0.00 | 0.00 | 44 | 1009.5 |
| 20260508184555 | 10 | 226 | 3.2 | 12.9 | 0.00 | 0.00 | 0.00 | 44 | 1009.5 |
| 20260508184432 | 10 | 68 | 4.8 | 12.9 | 0.00 | 0.00 | 0.00 | 44 | 1009.5 |
| 20260508184355 | 10 | 355 | 6.4 | 12.9 | 0.00 | 0.00 | 0.00 | 45 | 1009.5 |
| 20260508184240 | 10 | 298 | 8.0 | 12.9 | 0.00 | 0.00 | 0.00 | 45 | 1009.5 |
| 20260508184134 | 10 | 342 | 4.8 | 12.9 | 0.00 | 0.00 | 0.00 | 47 | 1009.5 |
| 20260508184037 | 10 | 312 | 3.2 | 12.9 | 0.00 | 0.00 | 0.00 | 47 | 1009.5 |
| 20260508183933 | 10 | 336 | 1.6 | 12.9 | 0.00 | 0.00 | 0.00 | 46 | 1009.5 |
| 20260508183827 | 10 | 332 | 3.2 | 12.9 | 0.00 | 0.00 | 0.00 | 47 | 1009.5 |
| 20260508183755 | 10 | 345 | 6.4 | 12.9 | 0.00 | 0.00 | 0.00 | 45 | 1009.5 |
| 20260508183716 | 10 | 344 | 6.4 | 12.9 | 0.00 | 0.00 | 0.00 | 47 | 1009.5 |
| 20260508183609 | 10 | 360 | 4.8 | 12.9 | 0.00 | 0.00 | 0.00 | 48 | 1009.5 |
| 20260508183530 | 10 | 29 | 1.6 | 6.4 | 0.00 | 0.00 | 0.00 | 49 | 1009.6 |
| 20260508183402 | 10 | 360 | 3.2 | 8.0 | 0.00 | 0.00 | 0.00 | 48 | 1009.6 |
| 20260508183255 | 10 | 9 | 3.2 | 9.7 | 0.00 | 0.00 | 0.00 | 46 | 1009.6 |
| 20260508183106 | 10 | 200 | 3.2 | 9.7 | 0.00 | 0.00 | 0.00 | 44 | 1009.6 |
| 20260508183027 | 10 | 221 | 3.2 | 9.7 | 0.00 | 0.00 | 0.00 | 44 | 1009.7 |
| 20260508182858 | 10 | 130 | 1.6 | 14.5 | 0.00 | 0.00 | 0.00 | 45 | 1009.7 |
| 20260508182729 | 10 | 41 | 3.2 | 14.5 | 0.00 | 0.00 | 0.00 | 45 | 1009.7 |
| 20260508182653 | 10 | 34 | 3.2 | 14.5 | 0.00 | 0.00 | 0.00 | 45 | 1009.7 |
| 20260508182540 | 10 | 40 | 6.4 | 17.7 | 0.00 | 0.00 | 0.00 | 45 | 1009.6 |
| 20260508182503 | 10 | 26 | 6.4 | 17.7 | 0.00 | 0.00 | 0.00 | 47 | 1009.6 |
| 20260508182429 | 10 | 27 | 4.8 | 19.3 | 0.00 | 0.00 | 0.00 | 47 | 1009.7 |
| 20260508182248 | 10 | 15 | 8.0 | 22.5 | 0.00 | 0.00 | 0.00 | 45 | 1009.7 |
| 20260508182148 | 10 | 5 | 9.7 | 22.5 | 0.00 | 0.00 | 0.00 | 45 | 1009.7 |
| 20260508181930 | 10 | 311 | 6.4 | 22.5 | 0.00 | 0.00 | 0.00 | 46 | 1009.8 |
| 20260508181852 | 10 | 325 | 6.4 | 22.5 | 0.00 | 0.00 | 0.00 | 45 | 1009.8 |
| 20260508181734 | 10 | 315 | 12.9 | 22.5 | 0.00 | 0.00 | 0.00 | 46 | 1009.8 |
| 20260508181659 | 10 | 329 | 11.3 | 22.5 | 0.00 | 0.00 | 0.00 | 46 | 1009.8 |
| 20260508181614 | 10 | 327 | 11.3 | 22.5 | 0.00 | 0.00 | 0.00 | 46 | 1009.8 |
| 20260508181428 | 10 | 325 | 11.3 | 22.5 | 0.00 | 0.00 | 0.00 | 46 | 1009.8 |
| 20260508181351 | 10 | 5 | 8.0 | 20.9 | 0.00 | 0.00 | 0.00 | 46 | 1009.8 |
| 20260508181233 | 10 | 330 | 11.3 | 20.9 | 0.00 | 0.00 | 0.00 | 47 | 1009.8 |
| 20260508181156 | 10 | 355 | 12.9 | 20.9 | 0.00 | 0.00 | 0.00 | 46 | 1009.8 |
| 20260508181118 | 10 | 5 | 12.9 | 20.9 | 0.00 | 0.00 | 0.00 | 47 | 1009.8 |
| 20260508180959 | 10 | 20 | 8.0 | 16.1 | 0.00 | 0.00 | 0.00 | 48 | 1009.8 |
| 20260508180841 | 10 | 348 | 6.4 | 12.9 | 0.00 | 0.00 | 0.00 | 48 | 1009.8 |
| 20260508180735 | 10 | 14 | 3.2 | 12.9 | 0.00 | 0.00 | 0.00 | 47 | 1009.8 |
| 20260508180659 | 10 | 5 | 3.2 | 12.9 | 0.00 | 0.00 | 0.00 | 47 | 1009.8 |
| 20260508180620 | 10 | 255 | 3.2 | 14.5 | 0.00 | 0.00 | 0.00 | 48 | 1009.8 |
| 20260508180443 | 10 | 282 | 4.8 | 14.5 | 0.00 | 0.00 | 0.00 | 48 | 1009.8 |
| 20260508180410 | 10 | 228 | 4.8 | 14.5 | 0.00 | 0.00 | 0.00 | 49 | 1009.9 |
| 20260508180230 | 10 | 318 | 6.4 | 14.5 | 0.00 | 0.00 | 0.00 | 48 | 1009.8 |
| 20260508180152 | 10 | 313 | 6.4 | 14.5 | 0.00 | 0.00 | 0.00 | 48 | 1009.8 |
| 20260508180055 | 10 | 332 | 6.4 | 14.5 | 0.00 | 0.00 | 0.00 | 47 | 1009.8 |
| 20260508175957 | 10 | 355 | 6.4 | 14.5 | 0.00 | 0.00 | 0.00 | 46 | 1009.8 |
| 20260508175920 | 10 | 345 | 6.4 | 14.5 | 0.00 | 0.00 | 0.00 | 47 | 1009.8 |
| 20260508175723 | 10 | 5 | 6.4 | 17.7 | 0.00 | 0.00 | 0.00 | 46 | 1009.8 |
| 20260508175626 | 10 | 290 | 6.4 | 17.7 | 0.00 | 0.00 | 0.00 | 47 | 1009.8 |
| 20260508175541 | 10 | 310 | 4.8 | 17.7 | 0.00 | 0.00 | 0.00 | 47 | 1009.8 |
| 20260508175502 | 10 | 302 | 6.4 | 17.7 | 0.00 | 0.00 | 0.00 | 46 | 1009.8 |
| 20260508175336 | 10 | 350 | 6.4 | 17.7 | 0.00 | 0.00 | 0.00 | 46 | 1009.8 |
| 20260508175229 | 10 | 315 | 3.2 | 17.7 | 0.00 | 0.00 | 0.00 | 46 | 1009.8 |
| 20260508175039 | 10 | 322 | 8.0 | 17.7 | 0.00 | 0.00 | 0.00 | 46 | 1009.8 |
| 20260508174952 | 10 | 331 | 8.0 | 17.7 | 0.00 | 0.00 | 0.00 | 49 | 1009.8 |
| 20260508174822 | 10 | 305 | 3.2 | 11.3 | 0.00 | 0.00 | 0.00 | 48 | 1009.8 |
| 20260508174743 | 10 | 200 | 4.8 | 11.3 | 0.00 | 0.00 | 0.00 | 47 | 1009.8 |
| 20260508174607 | 10 | 282 | 6.4 | 11.3 | 0.00 | 0.00 | 0.00 | 47 | 1009.7 |
| 20260508174528 | 10 | 212 | 6.4 | 12.9 | 0.00 | 0.00 | 0.00 | 47 | 1009.8 |
| 20260508174339 | 10 | 338 | 3.2 | 11.3 | 0.00 | 0.00 | 0.00 | 47 | 1009.8 |
| 20260508174234 | 10 | 242 | 1.6 | 11.3 | 0.00 | 0.00 | 0.00 | 49 | 1009.8 |
| 20260508174133 | 10 | 24 | 0.0 | 8.0 | 0.00 | 0.00 | 0.00 | 50 | 1009.9 |
| 20260508174054 | 9 | 34 | 0.0 | 8.0 | 0.00 | 0.00 | 0.00 | 50 | 1009.9 |
| 20260508174017 | 9 | 71 | 0.0 | 8.0 | 0.00 | 0.00 | 0.00 | 47 | 1009.8 |
| 20260508173900 | 9 | 87 | 1.6 | 8.0 | 0.00 | 0.00 | 0.00 | 49 | 1009.9 |
| 20260508173822 | 9 | 87 | 1.6 | 8.0 | 0.00 | 0.00 | 0.00 | 49 | 1009.9 |
| 20260508173626 | 9 | 5 | 3.2 | 8.0 | 0.00 | 0.00 | 0.00 | 48 | 1009.9 |
| 20260508173528 | 9 | 316 | 3.2 | 8.0 | 0.00 | 0.00 | 0.00 | 47 | 1010.0 |
| 20260508173432 | 9 | 302 | 4.8 | 8.0 | 0.00 | 0.00 | 0.00 | 47 | 1010.0 |
| 20260508173355 | 9 | 325 | 3.2 | 8.0 | 0.00 | 0.00 | 0.00 | 48 | 1010.0 |
| 20260508173317 | 9 | 299 | 1.6 | 8.0 | 0.00 | 0.00 | 0.00 | 48 | 1010.0 |
| 20260508173153 | 9 | 355 | 1.6 | 6.4 | 0.00 | 0.00 | 0.00 | 47 | 1010.0 |
| 20260508173048 | 9 | 346 | 1.6 | 6.4 | 0.00 | 0.00 | 0.00 | 48 | 1010.0 |
| 20260508172919 | 9 | 306 | 4.8 | 8.0 | 0.00 | 0.00 | 0.00 | 48 | 1010.0 |
| 20260508172841 | 9 | 349 | 3.2 | 8.0 | 0.00 | 0.00 | 0.00 | 47 | 1010.0 |
| 20260508172644 | 9 | 322 | 1.6 | 8.0 | 0.00 | 0.00 | 0.00 | 47 | 1010.0 |
| 20260508172606 | 9 | 294 | 3.2 | 8.0 | 0.00 | 0.00 | 0.00 | 49 | 1010.0 |
| 20260508172511 | 9 | 282 | 1.6 | 8.0 | 0.00 | 0.00 | 0.00 | 47 | 1010.0 |
| 20260508172433 | 9 | 263 | 3.2 | 8.0 | 0.00 | 0.00 | 0.00 | 47 | 1010.0 |
| 20260508172306 | 9 | 237 | 6.4 | 8.0 | 0.00 | 0.00 | 0.00 | 49 | 1010.0 |
| 20260508172157 | 9 | 258 | 4.8 | 8.0 | 0.00 | 0.00 | 0.00 | 48 | 1010.0 |
| 20260508172121 | 9 | 182 | 3.2 | 9.7 | 0.00 | 0.00 | 0.00 | 48 | 1010.0 |
| 20260508171936 | 9 | 280 | 1.6 | 12.9 | 0.00 | 0.00 | 0.00 | 47 | 1010.0 |
| 20260508171831 | 9 | 287 | 1.6 | 12.9 | 0.00 | 0.00 | 0.00 | 47 | 1010.0 |
| 20260508171752 | 9 | 350 | 1.6 | 12.9 | 0.00 | 0.00 | 0.00 | 47 | 1010.0 |
| 20260508171655 | 9 | 329 | 1.6 | 12.9 | 0.00 | 0.00 | 0.00 | 46 | 1010.0 |
| 20260508171625 | 9 | 329 | 1.6 | 12.9 | 0.00 | 0.00 | 0.00 | 45 | 1010.0 |
| 20260508171455 | 9 | 328 | 1.6 | 17.7 | 0.00 | 0.00 | 0.00 | 45 | 1010.0 |
| 20260508171328 | 9 | 328 | 4.8 | 17.7 | 0.00 | 0.00 | 0.00 | 47 | 1010.0 |
| 20260508171138 | 9 | 320 | 6.4 | 17.7 | 0.00 | 0.00 | 0.00 | 47 | 1010.0 |
| 20260508171035 | 9 | 309 | 6.4 | 17.7 | 0.00 | 0.00 | 0.00 | 48 | 1010.0 |
| 20260508170921 | 8 | 313 | 6.4 | 17.7 | 0.00 | 0.00 | 0.00 | 47 | 1010.0 |
| 20260508170844 | 8 | 300 | 8.0 | 17.7 | 0.00 | 0.00 | 0.00 | 47 | 1010.0 |
| 20260508170807 | 8 | 332 | 9.7 | 17.7 | 0.00 | 0.00 | 0.00 | 47 | 1010.0 |
| 20260508170650 | 8 | 341 | 8.0 | 17.7 | 0.00 | 0.00 | 0.00 | 48 | 1010.1 |
| 20260508170532 | 8 | 329 | 4.8 | 16.1 | 0.00 | 0.00 | 0.00 | 48 | 1010.0 |
| 20260508170435 | 8 | 350 | 1.6 | 16.1 | 0.00 | 0.00 | 0.00 | 48 | 1010.0 |
| 20260508170358 | 8 | 335 | 1.6 | 16.1 | 0.00 | 0.00 | 0.00 | 48 | 1010.0 |
| 20260508170321 | 8 | 335 | 1.6 | 16.1 | 0.00 | 0.00 | 0.00 | 48 | 1010.0 |
| 20260508170123 | 8 | 351 | 4.8 | 16.1 | 0.00 | 0.00 | 0.00 | 48 | 1010.0 |
| 20260508170044 | 8 | 355 | 6.4 | 16.1 | 0.00 | 0.00 | 0.00 | 47 | 1010.0 |
| 20260508165933 | 8 | 331 | 8.0 | 16.1 | 0.00 | 0.00 | 0.00 | 46 | 1010.0 |
| 20260508165854 | 8 | 295 | 9.7 | 16.1 | 0.00 | 0.00 | 0.00 | 48 | 1010.0 |
| 20260508165756 | 8 | 302 | 9.7 | 16.1 | 0.00 | 0.00 | 0.00 | 48 | 1010.0 |
| 20260508165700 | 8 | 342 | 9.7 | 14.5 | 0.00 | 0.00 | 0.00 | 48 | 1010.0 |
| 20260508165622 | 8 | 347 | 8.0 | 14.5 | 0.00 | 0.00 | 0.00 | 48 | 1010.0 |
| 20260508165430 | 8 | 317 | 6.4 | 12.9 | 0.00 | 0.00 | 0.00 | 48 | 1010.0 |
| 20260508165333 | 8 | 336 | 3.2 | 9.7 | 0.00 | 0.00 | 0.00 | 48 | 1010.0 |
| 20260508165245 | 8 | 24 | 3.2 | 9.7 | 0.00 | 0.00 | 0.00 | 48 | 1010.0 |
| 20260508165126 | 8 | 24 | 4.8 | 9.7 | 0.00 | 0.00 | 0.00 | 47 | 1010.0 |
| 20260508165030 | 8 | 10 | 4.8 | 9.7 | 0.00 | 0.00 | 0.00 | 48 | 1010.0 |
| 20260508164957 | 8 | 340 | 4.8 | 9.7 | 0.00 | 0.00 | 0.00 | 48 | 1010.0 |
| 20260508164919 | 8 | 355 | 4.8 | 9.7 | 0.00 | 0.00 | 0.00 | 47 | 1010.0 |
| 20260508164750 | 8 | 330 | 3.2 | 16.1 | 0.00 | 0.00 | 0.00 | 48 | 1010.0 |
| 20260508164644 | 8 | 26 | 3.2 | 16.1 | 0.00 | 0.00 | 0.00 | 47 | 1010.0 |
| 20260508164515 | 8 | 51 | 1.6 | 16.1 | 0.00 | 0.00 | 0.00 | 46 | 1010.0 |
| 20260508164437 | 8 | 13 | 1.6 | 16.1 | 0.00 | 0.00 | 0.00 | 46 | 1010.0 |
| 20260508164239 | 9 | 300 | 6.4 | 16.1 | 0.00 | 0.00 | 0.00 | 46 | 1010.0 |
| 20260508164202 | 9 | 311 | 8.0 | 16.1 | 0.00 | 0.00 | 0.00 | 46 | 1010.0 |
| 20260508164105 | 9 | 345 | 8.0 | 16.1 | 0.00 | 0.00 | 0.00 | 45 | 1010.0 |
| 20260508164027 | 9 | 342 | 9.7 | 16.1 | 0.00 | 0.00 | 0.00 | 45 | 1010.0 |
| 20260508163832 | 9 | 315 | 8.0 | 14.5 | 0.00 | 0.00 | 0.00 | 45 | 1010.0 |
| 20260508163738 | 9 | 347 | 6.4 | 14.5 | 0.00 | 0.00 | 0.00 | 46 | 1009.9 |
| 20260508163641 | 9 | 355 | 4.8 | 12.9 | 0.00 | 0.00 | 0.00 | 46 | 1009.9 |
| 20260508163544 | 9 | 301 | 4.8 | 12.9 | 0.00 | 0.00 | 0.00 | 47 | 1009.9 |
| 20260508163420 | 9 | 302 | 3.2 | 14.5 | 0.00 | 0.00 | 0.00 | 46 | 1010.0 |
| 20260508163335 | 9 | 340 | 3.2 | 14.5 | 0.00 | 0.00 | 0.00 | 46 | 1009.9 |
| 20260508163236 | 9 | 316 | 3.2 | 14.5 | 0.00 | 0.00 | 0.00 | 47 | 1009.9 |
| 20260508163201 | 9 | 322 | 4.8 | 14.5 | 0.00 | 0.00 | 0.00 | 47 | 1009.9 |
| 20260508163105 | 9 | 271 | 4.8 | 14.5 | 0.00 | 0.00 | 0.00 | 47 | 1009.9 |
| 20260508163031 | 9 | 288 | 4.8 | 14.5 | 0.00 | 0.00 | 0.00 | 48 | 1009.9 |
| 20260508162834 | 9 | 338 | 6.4 | 14.5 | 0.00 | 0.00 | 0.00 | 47 | 1009.9 |
| 20260508162738 | 9 | 326 | 8.0 | 14.5 | 0.00 | 0.00 | 0.00 | 48 | 1009.9 |
| 20260508162649 | 9 | 12 | 8.0 | 14.5 | 0.00 | 0.00 | 0.00 | 48 | 1009.9 |
| 20260508162613 | 9 | 347 | 8.0 | 16.1 | 0.00 | 0.00 | 0.00 | 48 | 1009.9 |
| 20260508162442 | 9 | 355 | 4.8 | 16.1 | 0.00 | 0.00 | 0.00 | 47 | 1009.9 |
| 20260508162335 | 9 | 336 | 4.8 | 16.1 | 0.00 | 0.00 | 0.00 | 46 | 1009.9 |
| 20260508162206 | 9 | 27 | 6.4 | 16.1 | 0.00 | 0.00 | 0.00 | 45 | 1009.9 |
| 20260508162128 | 9 | 19 | 8.0 | 16.1 | 0.00 | 0.00 | 0.00 | 46 | 1009.9 |
| 20260508161931 | 9 | 339 | 8.0 | 16.1 | 0.00 | 0.00 | 0.00 | 45 | 1009.9 |
| 20260508161838 | 9 | 330 | 9.7 | 16.1 | 0.00 | 0.00 | 0.00 | 45 | 1009.9 |
| 20260508161741 | 9 | 313 | 8.0 | 16.1 | 0.00 | 0.00 | 0.00 | 47 | 1010.0 |
| 20260508161644 | 9 | 319 | 6.4 | 17.7 | 0.00 | 0.00 | 0.00 | 48 | 1010.0 |
| 20260508161538 | 9 | 348 | 6.4 | 17.7 | 0.00 | 0.00 | 0.00 | 47 | 1009.9 |
| 20260508161502 | 9 | 347 | 6.4 | 17.7 | 0.00 | 0.00 | 0.00 | 47 | 1009.9 |
| 20260508161406 | 9 | 333 | 4.8 | 17.7 | 0.00 | 0.00 | 0.00 | 46 | 1009.9 |
| 20260508161329 | 9 | 327 | 4.8 | 17.7 | 0.00 | 0.00 | 0.00 | 46 | 1009.9 |
| 20260508161129 | 9 | 333 | 4.8 | 17.7 | 0.00 | 0.00 | 0.00 | 46 | 1009.9 |
| 20260508161036 | 9 | 298 | 8.0 | 17.7 | 0.00 | 0.00 | 0.00 | 47 | 1010.0 |
| 20260508160939 | 9 | 325 | 9.7 | 17.7 | 0.00 | 0.00 | 0.00 | 47 | 1010.0 |
| 20260508160842 | 9 | 309 | 9.7 | 17.7 | 0.00 | 0.00 | 0.00 | 49 | 1010.0 |
| 20260508160758 | 9 | 333 | 8.0 | 14.5 | 0.00 | 0.00 | 0.00 | 49 | 1010.0 |
| 20260508160629 | 9 | 325 | 4.8 | 12.9 | 0.00 | 0.00 | 0.00 | 48 | 1010.0 |
| 20260508160530 | 9 | 321 | 4.8 | 12.9 | 0.00 | 0.00 | 0.00 | 48 | 1010.0 |
| 20260508160335 | 8 | 316 | 3.2 | 12.9 | 0.00 | 0.00 | 0.00 | 49 | 1010.0 |
| 20260508160235 | 8 | 229 | 3.2 | 12.9 | 0.00 | 0.00 | 0.00 | 48 | 1010.0 |
| 20260508160140 | 8 | 228 | 3.2 | 12.9 | 0.00 | 0.00 | 0.00 | 49 | 1009.9 |
| 20260508160040 | 8 | 247 | 3.2 | 12.9 | 0.00 | 0.00 | 0.00 | 49 | 1009.9 |
| 20260508155915 | 8 | 308 | 4.8 | 12.9 | 0.00 | 0.00 | 0.00 | 49 | 1009.9 |
| 20260508155829 | 8 | 309 | 6.4 | 12.9 | 0.00 | 0.00 | 0.00 | 49 | 1010.0 |
| 20260508155614 | 8 | 310 | 6.4 | 12.9 | 0.00 | 0.00 | 0.00 | 47 | 1010.0 |
| 20260508155545 | 8 | 291 | 4.8 | 12.9 | 0.00 | 0.00 | 0.00 | 47 | 1010.0 |
| 20260508155425 | 8 | 325 | 6.4 | 12.9 | 0.00 | 0.00 | 0.00 | 48 | 1010.0 |
| 20260508155319 | 8 | 325 | 4.8 | 12.9 | 0.00 | 0.00 | 0.00 | 48 | 1010.0 |
| 20260508155129 | 8 | 275 | 4.8 | 12.9 | 0.00 | 0.00 | 0.00 | 49 | 1010.0 |
| 20260508155045 | 8 | 316 | 6.4 | 12.9 | 0.00 | 0.00 | 0.00 | 49 | 1010.0 |
| 20260508154917 | 8 | 244 | 4.8 | 12.9 | 0.00 | 0.00 | 0.00 | 49 | 1009.9 |
| 20260508154839 | 8 | 191 | 3.2 | 16.1 | 0.00 | 0.00 | 0.00 | 50 | 1009.9 |
| 20260508154713 | 8 | 198 | 3.2 | 16.1 | 0.00 | 0.00 | 0.00 | 48 | 1009.8 |
| 20260508154629 | 8 | 180 | 1.6 | 16.1 | 0.00 | 0.00 | 0.00 | 48 | 1010.0 |
| 20260508154438 | 8 | 318 | 3.2 | 16.1 | 0.00 | 0.00 | 0.00 | 49 | 1010.0 |
| 20260508154354 | 8 | 318 | 4.8 | 16.1 | 0.00 | 0.00 | 0.00 | 49 | 1010.0 |
| 20260508154226 | 8 | 257 | 6.4 | 16.1 | 0.00 | 0.00 | 0.00 | 48 | 1009.9 |
| 20260508154125 | 8 | 284 | 8.0 | 16.1 | 0.00 | 0.00 | 0.00 | 48 | 1009.9 |
| 20260508153928 | 8 | 318 | 11.3 | 16.1 | 0.00 | 0.00 | 0.00 | 48 | 1009.9 |
| 20260508153852 | 8 | 337 | 8.0 | 22.5 | 0.00 | 0.00 | 0.00 | 48 | 1009.9 |
| 20260508153733 | 8 | 348 | 6.4 | 22.5 | 0.00 | 0.00 | 0.00 | 47 | 1009.9 |
| 20260508153633 | 8 | 355 | 4.8 | 22.5 | 0.00 | 0.00 | 0.00 | 47 | 1009.9 |
| 20260508153601 | 8 | 342 | 3.2 | 22.5 | 0.00 | 0.00 | 0.00 | 48 | 1009.9 |
| 20260508153506 | 8 | 345 | 3.2 | 22.5 | 0.00 | 0.00 | 0.00 | 47 | 1009.8 |
| 20260508153427 | 9 | 333 | 6.4 | 22.5 | 0.00 | 0.00 | 0.00 | 46 | 1009.9 |
| 20260508153258 | 9 | 275 | 11.3 | 22.5 | 0.00 | 0.00 | 0.00 | 46 | 1009.9 |
| 20260508153132 | 9 | 289 | 9.7 | 22.5 | 0.00 | 0.00 | 0.00 | 47 | 1009.9 |
| 20260508153025 | 9 | 355 | 4.8 | 12.9 | 0.00 | 0.00 | 0.00 | 48 | 1009.8 |
| 20260508152948 | 9 | 223 | 6.4 | 16.1 | 0.00 | 0.00 | 0.00 | 47 | 1009.8 |
| 20260508152732 | 9 | 217 | 6.4 | 16.1 | 0.00 | 0.00 | 0.00 | 45 | 1009.8 |
| 20260508152633 | 9 | 5 | 6.4 | 16.1 | 0.00 | 0.00 | 0.00 | 45 | 1009.8 |
| 20260508152540 | 9 | 317 | 6.4 | 16.1 | 0.00 | 0.00 | 0.00 | 46 | 1009.8 |
| 20260508152442 | 9 | 294 | 8.0 | 16.1 | 0.00 | 0.00 | 0.00 | 47 | 1009.8 |
| 20260508152357 | 9 | 297 | 8.0 | 16.1 | 0.00 | 0.00 | 0.00 | 45 | 1009.8 |
| 20260508152226 | 9 | 14 | 9.7 | 16.1 | 0.00 | 0.00 | 0.00 | 46 | 1009.8 |
| 20260508152126 | 9 | 5 | 9.7 | 16.1 | 0.00 | 0.00 | 0.00 | 47 | 1009.8 |
| 20260508152008 | 9 | 360 | 4.8 | 16.1 | 0.00 | 0.00 | 0.00 | 49 | 1009.8 |
| 20260508151823 | 9 | 326 | 4.8 | 19.3 | 0.00 | 0.00 | 0.00 | 49 | 1009.8 |
| 20260508151725 | 9 | 333 | 9.7 | 19.3 | 0.00 | 0.00 | 0.00 | 48 | 1009.8 |
| 20260508151658 | 9 | 355 | 11.3 | 19.3 | 0.00 | 0.00 | 0.00 | 47 | 1009.8 |
| 20260508151618 | 9 | 344 | 11.3 | 19.3 | 0.00 | 0.00 | 0.00 | 47 | 1009.8 |
| 20260508151428 | 9 | 311 | 9.7 | 19.3 | 0.00 | 0.00 | 0.00 | 48 | 1009.8 |
| 20260508151323 | 9 | 330 | 11.3 | 19.3 | 0.00 | 0.00 | 0.00 | 47 | 1009.8 |
| 20260508151248 | 9 | 350 | 11.3 | 19.3 | 0.00 | 0.00 | 0.00 | 48 | 1009.8 |
| 20260508151205 | 9 | 344 | 8.0 | 19.3 | 0.00 | 0.00 | 0.00 | 48 | 1009.8 |
| 20260508151127 | 9 | 16 | 8.0 | 19.3 | 0.00 | 0.00 | 0.00 | 48 | 1009.7 |
| 20260508150930 | 9 | 326 | 8.0 | 16.1 | 0.00 | 0.00 | 0.00 | 48 | 1009.8 |
| 20260508150833 | 10 | 355 | 9.7 | 14.5 | 0.00 | 0.00 | 0.00 | 48 | 1009.8 |
| 20260508150731 | 10 | 323 | 12.9 | 14.5 | 0.00 | 0.00 | 0.00 | 47 | 1009.8 |
| 20260508150655 | 10 | 302 | 11.3 | 14.5 | 0.00 | 0.00 | 0.00 | 49 | 1009.8 |
| 20260508150539 | 10 | 351 | 6.4 | 14.5 | 0.00 | 0.00 | 0.00 | 48 | 1009.7 |
| 20260508150444 | 9 | 294 | 3.2 | 11.3 | 0.00 | 0.00 | 0.00 | 48 | 1009.7 |
| 20260508150337 | 9 | 307 | 1.6 | 11.3 | 0.00 | 0.00 | 0.00 | 48 | 1009.7 |
| 20260508150301 | 9 | 360 | 3.2 | 11.3 | 0.00 | 0.00 | 0.00 | 48 | 1009.7 |
| 20260508150204 | 9 | 341 | 3.2 | 11.3 | 0.00 | 0.00 | 0.00 | 48 | 1009.7 |
| 20260508150125 | 9 | 343 | 3.2 | 11.3 | 0.00 | 0.00 | 0.00 | 48 | 1009.7 |
| 20260508145928 | 9 | 275 | 6.4 | 11.3 | 0.00 | 0.00 | 0.00 | 50 | 1009.8 |
| 20260508145835 | 9 | 315 | 4.8 | 16.1 | 0.00 | 0.00 | 0.00 | 49 | 1009.8 |
| 20260508145739 | 9 | 341 | 4.8 | 16.1 | 0.00 | 0.00 | 0.00 | 49 | 1009.8 |
| 20260508145702 | 8 | 19 | 4.8 | 16.1 | 0.00 | 0.00 | 0.00 | 49 | 1009.8 |
| 20260508145523 | 8 | 38 | 4.8 | 16.1 | 0.00 | 0.00 | 0.00 | 48 | 1009.8 |
| 20260508145446 | 8 | 350 | 6.4 | 16.1 | 0.00 | 0.00 | 0.00 | 48 | 1009.8 |
| 20260508145408 | 8 | 349 | 6.4 | 16.1 | 0.00 | 0.00 | 0.00 | 49 | 1009.8 |
| 20260508145223 | 8 | 360 | 8.0 | 16.1 | 0.00 | 0.00 | 0.00 | 49 | 1009.9 |
| 20260508145144 | 8 | 24 | 8.0 | 16.1 | 0.00 | 0.00 | 0.00 | 49 | 1009.8 |
| 20260508145037 | 8 | 327 | 6.4 | 16.1 | 0.00 | 0.00 | 0.00 | 48 | 1009.9 |
| 20260508144945 | 8 | 321 | 1.6 | 11.3 | 0.00 | 0.00 | 0.00 | 48 | 1009.9 |
| 20260508144830 | 8 | 251 | 4.8 | 11.3 | 0.00 | 0.00 | 0.00 | 48 | 1009.9 |
| 20260508144751 | 8 | 260 | 8.0 | 11.3 | 0.00 | 0.00 | 0.00 | 49 | 1009.9 |
| 20260508144600 | 8 | 315 | 1.6 | 11.3 | 0.00 | 0.00 | 0.00 | 49 | 1010.0 |
| 20260508144433 | 8 | 139 | 3.2 | 17.7 | 0.00 | 0.00 | 0.00 | 49 | 1010.0 |
| 20260508144355 | 8 | 142 | 4.8 | 17.7 | 0.00 | 0.00 | 0.00 | 49 | 1010.0 |
| 20260508144258 | 8 | 202 | 4.8 | 17.7 | 0.00 | 0.00 | 0.00 | 49 | 1010.0 |
| 20260508144220 | 8 | 173 | 4.8 | 17.7 | 0.00 | 0.00 | 0.00 | 49 | 1010.0 |
| 20260508144023 | 8 | 141 | 8.0 | 17.7 | 0.00 | 0.00 | 0.00 | 48 | 1010.0 |
| 20260508143930 | 8 | 163 | 8.0 | 17.7 | 0.00 | 0.00 | 0.00 | 48 | 1010.1 |
| 20260508143835 | 8 | 205 | 6.4 | 17.7 | 0.00 | 0.00 | 0.00 | 48 | 1010.1 |
| 20260508143758 | 8 | 257 | 8.0 | 17.7 | 0.00 | 0.00 | 0.00 | 48 | 1010.1 |
| 20260508143606 | 8 | 298 | 6.4 | 17.7 | 0.00 | 0.00 | 0.00 | 49 | 1010.0 |
| 20260508143522 | 8 | 248 | 4.8 | 17.7 | 0.00 | 0.00 | 0.00 | 48 | 1010.1 |
| 20260508143331 | 8 | 209 | 3.2 | 17.7 | 0.00 | 0.00 | 0.00 | 48 | 1010.0 |
| 20260508143247 | 8 | 345 | 4.8 | 17.7 | 0.00 | 0.00 | 0.00 | 48 | 1010.0 |
| 20260508143037 | 8 | 28 | 8.0 | 17.7 | 0.00 | 0.00 | 0.00 | 49 | 1010.1 |
| 20260508142951 | 8 | 342 | 1.6 | 9.7 | 0.00 | 0.00 | 0.00 | 49 | 1010.1 |
| 20260508142759 | 8 | 211 | 1.6 | 8.0 | 0.00 | 0.00 | 0.00 | 48 | 1010.1 |
| 20260508142644 | 8 | 239 | 1.6 | 11.3 | 0.00 | 0.00 | 0.00 | 48 | 1010.1 |
| 20260508142521 | 8 | 243 | 1.6 | 12.9 | 0.00 | 0.00 | 0.00 | 48 | 1010.2 |
| 20260508142436 | 8 | 243 | 0.0 | 12.9 | 0.00 | 0.00 | 0.00 | 48 | 1010.2 |
| 20260508142357 | 8 | 243 | 0.0 | 12.9 | 0.00 | 0.00 | 0.00 | 48 | 1010.2 |
| 20260508142300 | 8 | 243 | 1.6 | 12.9 | 0.00 | 0.00 | 0.00 | 48 | 1010.2 |
| 20260508142125 | 8 | 240 | 4.8 | 12.9 | 0.00 | 0.00 | 0.00 | 47 | 1010.2 |
| 20260508142041 | 8 | 273 | 4.8 | 12.9 | 0.00 | 0.00 | 0.00 | 47 | 1010.2 |
| 20260508141912 | 8 | 253 | 4.8 | 12.9 | 0.00 | 0.00 | 0.00 | 47 | 1010.2 |
| 20260508141834 | 8 | 240 | 6.4 | 12.9 | 0.00 | 0.00 | 0.00 | 47 | 1010.2 |
| 20260508141710 | 8 | 248 | 6.4 | 12.9 | 0.00 | 0.00 | 0.00 | 46 | 1010.1 |
| 20260508141623 | 8 | 290 | 6.4 | 12.9 | 0.00 | 0.00 | 0.00 | 46 | 1010.1 |
| 20260508141435 | 7 | 237 | 3.2 | 9.7 | 0.00 | 0.00 | 0.00 | 46 | 1010.2 |
| 20260508141349 | 7 | 300 | 3.2 | 9.7 | 0.00 | 0.00 | 0.00 | 47 | 1010.2 |
| 20260508141208 | 7 | 329 | 3.2 | 16.1 | 0.00 | 0.00 | 0.00 | 47 | 1010.2 |
| 20260508141018 | 7 | 317 | 3.2 | 16.1 | 0.00 | 0.00 | 0.00 | 47 | 1010.2 |
| 20260508140934 | 7 | 265 | 1.6 | 16.1 | 0.00 | 0.00 | 0.00 | 47 | 1010.2 |
| 20260508140804 | 7 | 321 | 1.6 | 16.1 | 0.00 | 0.00 | 0.00 | 47 | 1010.2 |
| 20260508140724 | 7 | 321 | 1.6 | 16.1 | 0.00 | 0.00 | 0.00 | 47 | 1010.2 |
| 20260508140528 | 7 | 265 | 8.0 | 16.1 | 0.00 | 0.00 | 0.00 | 47 | 1010.3 |
| 20260508140452 | 7 | 286 | 9.7 | 16.1 | 0.00 | 0.00 | 0.00 | 47 | 1010.3 |
| 20260508140400 | 7 | 289 | 6.4 | 16.1 | 0.00 | 0.00 | 0.00 | 46 | 1010.3 |
| 20260508140241 | 7 | 221 | 3.2 | 12.9 | 0.00 | 0.00 | 0.00 | 47 | 1010.3 |
| 20260508140122 | 7 | 247 | 3.2 | 12.9 | 0.00 | 0.00 | 0.00 | 47 | 1010.2 |
| 20260508140045 | 7 | 213 | 4.8 | 12.9 | 0.00 | 0.00 | 0.00 | 47 | 1010.2 |
| 20260508140008 | 7 | 195 | 3.2 | 12.9 | 0.00 | 0.00 | 0.00 | 47 | 1010.3 |
| 20260508135912 | 7 | 267 | 3.2 | 12.9 | 0.00 | 0.00 | 0.00 | 46 | 1010.1 |
| 20260508135835 | 7 | 169 | 3.2 | 12.9 | 0.00 | 0.00 | 0.00 | 46 | 1010.1 |
| 20260508135705 | 7 | 319 | 1.6 | 12.9 | 0.00 | 0.00 | 0.00 | 46 | 1010.1 |
| 20260508135621 | 7 | 21 | 3.2 | 12.9 | 0.00 | 0.00 | 0.00 | 46 | 1010.2 |
| 20260508135451 | 7 | 223 | 6.4 | 12.9 | 0.00 | 0.00 | 0.00 | 46 | 1010.2 |
| 20260508135352 | 7 | 205 | 4.8 | 11.3 | 0.00 | 0.00 | 0.00 | 46 | 1010.2 |
| 20260508135205 | 7 | 237 | 4.8 | 11.3 | 0.00 | 0.00 | 0.00 | 45 | 1010.2 |
| 20260508135119 | 7 | 188 | 4.8 | 11.3 | 0.00 | 0.00 | 0.00 | 45 | 1010.2 |
| 20260508134931 | 7 | 240 | 3.2 | 11.3 | 0.00 | 0.00 | 0.00 | 45 | 1010.2 |
| 20260508134824 | 7 | 237 | 4.8 | 11.3 | 0.00 | 0.00 | 0.00 | 45 | 1010.2 |
| 20260508134747 | 7 | 248 | 6.4 | 12.9 | 0.00 | 0.00 | 0.00 | 45 | 1010.2 |
| 20260508134651 | 7 | 234 | 3.2 | 12.9 | 0.00 | 0.00 | 0.00 | 44 | 1010.2 |
| 20260508134552 | 7 | 214 | 1.6 | 12.9 | 0.00 | 0.00 | 0.00 | 44 | 1010.2 |
| 20260508134516 | 7 | 309 | 3.2 | 12.9 | 0.00 | 0.00 | 0.00 | 44 | 1010.3 |
| 20260508134420 | 7 | 255 | 3.2 | 16.1 | 0.00 | 0.00 | 0.00 | 44 | 1010.4 |
| 20260508134341 | 7 | 283 | 3.2 | 16.1 | 0.00 | 0.00 | 0.00 | 44 | 1010.4 |
| 20260508134211 | 7 | 338 | 4.8 | 16.1 | 0.00 | 0.00 | 0.00 | 44 | 1010.4 |
| 20260508134130 | 7 | 327 | 6.4 | 16.1 | 0.00 | 0.00 | 0.00 | 44 | 1010.4 |
| 20260508134001 | 7 | 260 | 4.8 | 16.1 | 0.00 | 0.00 | 0.00 | 42 | 1010.4 |
| 20260508133815 | 7 | 251 | 8.0 | 16.1 | 0.00 | 0.00 | 0.00 | 42 | 1010.4 |
| 20260508133727 | 7 | 324 | 8.0 | 16.1 | 0.00 | 0.00 | 0.00 | 42 | 1010.4 |
| 20260508133640 | 7 | 336 | 8.0 | 16.1 | 0.00 | 0.00 | 0.00 | 42 | 1010.3 |
| 20260508133544 | 7 | 249 | 4.8 | 9.7 | 0.00 | 0.00 | 0.00 | 42 | 1010.3 |
| 20260508133427 | 7 | 190 | 1.6 | 11.3 | 0.00 | 0.00 | 0.00 | 40 | 1010.3 |
| 20260508133350 | 7 | 355 | 0.0 | 12.9 | 0.00 | 0.00 | 0.00 | 41 | 1010.3 |
| 20260508133309 | 7 | 340 | 1.6 | 12.9 | 0.00 | 0.00 | 0.00 | 42 | 1010.3 |
| 20260508133118 | 7 | 309 | 3.2 | 12.9 | 0.00 | 0.00 | 0.00 | 39 | 1010.3 |
| 20260508132959 | 7 | 281 | 3.2 | 12.9 | 0.00 | 0.00 | 0.00 | 39 | 1010.3 |
| 20260508132841 | 7 | 268 | 3.2 | 12.9 | 0.00 | 0.00 | 0.00 | 41 | 1010.3 |
| 20260508132804 | 7 | 274 | 3.2 | 12.9 | 0.00 | 0.00 | 0.00 | 41 | 1010.3 |
| 20260508132718 | 7 | 225 | 4.8 | 12.9 | 0.00 | 0.00 | 0.00 | 41 | 1010.3 |
| 20260508132547 | 7 | 322 | 6.4 | 14.5 | 0.00 | 0.00 | 0.00 | 41 | 1010.3 |
| 20260508132449 | 7 | 315 | 8.0 | 14.5 | 0.00 | 0.00 | 0.00 | 41 | 1010.3 |
| 20260508132323 | 7 | 286 | 3.2 | 14.5 | 0.00 | 0.00 | 0.00 | 39 | 1010.2 |
| 20260508132229 | 7 | 331 | 4.8 | 14.5 | 0.00 | 0.00 | 0.00 | 39 | 1010.3 |
| 20260508132134 | 7 | 295 | 4.8 | 14.5 | 0.00 | 0.00 | 0.00 | 40 | 1010.2 |
| 20260508131945 | 7 | 319 | 4.8 | 14.5 | 0.00 | 0.00 | 0.00 | 39 | 1010.2 |
| 20260508131838 | 7 | 200 | 8.0 | 14.5 | 0.00 | 0.00 | 0.00 | 39 | 1010.2 |
| 20260508131743 | 7 | 240 | 6.4 | 14.5 | 0.00 | 0.00 | 0.00 | 38 | 1010.2 |
| 20260508131646 | 7 | 259 | 4.8 | 9.7 | 0.00 | 0.00 | 0.00 | 38 | 1010.2 |
| 20260508131529 | 7 | 327 | 4.8 | 14.5 | 0.00 | 0.00 | 0.00 | 39 | 1010.2 |
| 20260508131431 | 7 | 313 | 4.8 | 14.5 | 0.00 | 0.00 | 0.00 | 38 | 1010.2 |
| 20260508131354 | 7 | 322 | 4.8 | 14.5 | 0.00 | 0.00 | 0.00 | 38 | 1010.2 |
| 20260508131316 | 7 | 304 | 4.8 | 14.5 | 0.00 | 0.00 | 0.00 | 38 | 1010.2 |
| 20260508131124 | 7 | 307 | 4.8 | 14.5 | 0.00 | 0.00 | 0.00 | 37 | 1010.2 |
| 20260508131037 | 7 | 290 | 6.4 | 14.5 | 0.00 | 0.00 | 0.00 | 37 | 1010.2 |
| 20260508130909 | 7 | 317 | 6.4 | 16.1 | 0.00 | 0.00 | 0.00 | 37 | 1010.2 |
| 20260508130831 | 7 | 326 | 8.0 | 16.1 | 0.00 | 0.00 | 0.00 | 37 | 1010.2 |
| 20260508130633 | 7 | 302 | 4.8 | 16.1 | 0.00 | 0.00 | 0.00 | 34 | 1010.2 |
| 20260508130557 | 7 | 315 | 3.2 | 16.1 | 0.00 | 0.00 | 0.00 | 34 | 1010.2 |
| 20260508130500 | 7 | 282 | 1.6 | 16.1 | 0.00 | 0.00 | 0.00 | 30 | 1010.1 |
| 20260508130344 | 7 | 244 | 4.8 | 16.1 | 0.00 | 0.00 | 0.00 | 32 | 1010.1 |
| 20260508130227 | 7 | 259 | 6.4 | 16.1 | 0.00 | 0.00 | 0.00 | 32 | 1010.2 |
| 20260508130148 | 7 | 329 | 4.8 | 16.1 | 0.00 | 0.00 | 0.00 | 32 | 1010.2 |
| 20260508130019 | 7 | 325 | 1.6 | 9.7 | 0.00 | 0.00 | 0.00 | 31 | 1010.1 |
| 20260508125933 | 7 | 284 | 1.6 | 9.7 | 0.00 | 0.00 | 0.00 | 31 | 1010.1 |
| 20260508125718 | 7 | 284 | 1.6 | 9.7 | 0.00 | 0.00 | 0.00 | 32 | 1010.1 |
| 20260508125639 | 7 | 282 | 1.6 | 9.7 | 0.00 | 0.00 | 0.00 | 32 | 1010.1 |
| 20260508125445 | 7 | 161 | 6.4 | 9.7 | 0.00 | 0.00 | 0.00 | 29 | 1010.1 |
| 20260508125407 | 7 | 178 | 6.4 | 9.7 | 0.00 | 0.00 | 0.00 | 29 | 1010.1 |
| 20260508125311 | 7 | 164 | 6.4 | 9.7 | 0.00 | 0.00 | 0.00 | 30 | 1010.1 |
| 20260508125211 | 7 | 210 | 4.8 | 8.0 | 0.00 | 0.00 | 0.00 | 29 | 1010.1 |
| 20260508125022 | 7 | 59 | 1.6 | 8.0 | 0.00 | 0.00 | 0.00 | 20 | 1010.1 |
| 20260508124932 | 7 | 92 | 1.6 | 8.0 | 0.00 | 0.00 | 0.00 | 23 | 1010.1 |
| 20260508124724 | 7 | 360 | 1.6 | 8.0 | 0.00 | 0.00 | 0.00 | 25 | 1010.1 |
| 20260508124637 | 7 | 5 | 1.6 | 11.3 | 0.00 | 0.00 | 0.00 | 25 | 1010.1 |
| 20260508124509 | 7 | 255 | 1.6 | 11.3 | 0.00 | 0.00 | 0.00 | 24 | 1010.1 |
| 20260508124431 | 7 | 255 | 3.2 | 11.3 | 0.00 | 0.00 | 0.00 | 24 | 1010.1 |
| 20260508124233 | 7 | 236 | 3.2 | 11.3 | 0.00 | 0.00 | 0.00 | 24 | 1010.3 |
| 20260508124155 | 7 | 177 | 3.2 | 11.3 | 0.00 | 0.00 | 0.00 | 23 | 1010.3 |
| 20260508124040 | 6 | 244 | 3.2 | 11.3 | 0.00 | 0.00 | 0.00 | 22 | 1010.2 |
| 20260508124000 | 6 | 258 | 4.8 | 11.3 | 0.00 | 0.00 | 0.00 | 21 | 1010.2 |
| 20260508123840 | 6 | 225 | 6.4 | 11.3 | 0.00 | 0.00 | 0.00 | 20 | 1010.2 |
| 20260508123759 | 6 | 227 | 6.4 | 11.3 | 0.00 | 0.00 | 0.00 | 21 | 1010.1 |
| 20260508123610 | 6 | 148 | 6.4 | 11.3 | 0.00 | 0.00 | 0.00 | 22 | 1010.1 |
| 20260508123521 | 6 | 169 | 6.4 | 11.3 | 0.00 | 0.00 | 0.00 | 20 | 1010.1 |
| 20260508123349 | 6 | 180 | 6.4 | 11.3 | 0.00 | 0.00 | 0.00 | 20 | 1010.1 |
| 20260508123246 | 6 | 171 | 8.0 | 11.3 | 0.00 | 0.00 | 0.00 | 19 | 1010.1 |
| 20260508123026 | 6 | 184 | 4.8 | 8.0 | 0.00 | 0.00 | 0.00 | 12 | 1010.1 |
| 20260508122928 | 6 | 158 | 6.4 | 8.0 | 0.00 | 0.00 | 0.00 | 8 | 1010.1 |
| 20260508122832 | 6 | 203 | 6.4 | 8.0 | 0.00 | 0.00 | 0.00 | 6 | 1010.1 |
| 20260508122753 | 6 | 152 | 6.4 | 8.0 | 0.00 | 0.00 | 0.00 | 7 | 1010.1 |
| 20260508122715 | 6 | 187 | 4.8 | 9.7 | 0.00 | 0.00 | 0.00 | 3 | 1010.1 |
| 20260508122619 | 6 | 173 | 4.8 | 9.7 | 0.00 | 0.00 | 0.00 | 1 | 1010.0 |
| 20260508122354 | 6 | 136 | 3.2 | 8.0 | 0.00 | 0.00 | 0.00 | 1 | 1010.1 |
| 20260508122246 | 6 | 140 | 3.2 | 8.0 | 0.00 | 0.00 | 0.00 | 1 | 1010.1 |
| 20260508122117 | 6 | 165 | 3.2 | 9.7 | 0.00 | 0.00 | 0.00 | 1 | 1010.0 |
| 20260508122039 | 6 | 131 | 3.2 | 9.7 | 0.00 | 0.00 | 0.00 | 1 | 1010.0 |
| 20260508121911 | 6 | 154 | 3.2 | 9.7 | 0.00 | 0.00 | 0.00 | 1 | 1010.1 |
| 20260508121835 | 6 | 159 | 3.2 | 9.7 | 0.00 | 0.00 | 0.00 | 1 | 1010.1 |
| 20260508121625 | 6 | 159 | 4.8 | 9.7 | 0.00 | 0.00 | 0.00 | 1 | 1010.1 |
| 20260508121539 | 6 | 144 | 4.8 | 9.7 | 0.00 | 0.00 | 0.00 | 1 | 1010.0 |
| 20260508121443 | 6 | 162 | 4.8 | 9.7 | 0.00 | 0.00 | 0.00 | 1 | 1010.0 |
| 20260508121323 | 6 | 171 | 4.8 | 9.7 | 0.00 | 0.00 | 0.00 | 1 | 1010.0 |
| 20260508121237 | 6 | 165 | 4.8 | 9.7 | 0.00 | 0.00 | 0.00 | 1 | 1010.0 |
| 20260508121108 | 6 | 213 | 6.4 | 9.7 | 0.00 | 0.00 | 0.00 | 1 | 1010.0 |
| 20260508121029 | 6 | 184 | 6.4 | 9.7 | 0.00 | 0.00 | 0.00 | 1 | 1010.0 |
| 20260508120832 | 6 | 186 | 4.8 | 9.7 | 0.00 | 0.00 | 0.00 | 1 | 1010.0 |
| 20260508120754 | 5 | 178 | 6.4 | 9.7 | 0.00 | 0.00 | 0.00 | 1 | 1010.0 |
| 20260508120656 | 5 | 187 | 4.8 | 9.7 | 0.00 | 0.00 | 0.00 | 1 | 1010.0 |
| 20260508120619 | 5 | 178 | 3.2 | 9.7 | 0.00 | 0.00 | 0.00 | 1 | 1009.9 |
| 20260508120423 | 5 | 90 | 1.6 | 6.4 | 0.00 | 0.00 | 0.00 | 1 | 1009.8 |
| 20260508120326 | 5 | 88 | 3.2 | 6.4 | 0.00 | 0.00 | 0.00 | 1 | 1009.8 |
| 20260508120232 | 5 | 89 | 4.8 | 6.4 | 0.00 | 0.00 | 0.00 | 1 | 1009.8 |
| 20260508120154 | 5 | 92 | 4.8 | 6.4 | 0.00 | 0.00 | 0.00 | 1 | 1009.8 |
| 20260508120115 | 5 | 107 | 4.8 | 6.4 | 0.00 | 0.00 | 0.00 | 1 | 1009.8 |
| 20260508115947 | 5 | 140 | 1.6 | 4.8 | 0.00 | 0.00 | 0.00 | 1 | 1009.8 |
| 20260508115840 | 5 | 162 | 1.6 | 4.8 | 0.00 | 0.00 | 0.00 | 1 | 1009.8 |
| 20260508115743 | 5 | 113 | 0.0 | 4.8 | 0.00 | 0.00 | 0.00 | 1 | 1009.8 |
| 20260508115638 | 5 | 98 | 0.0 | 4.8 | 0.00 | 0.00 | 0.00 | 1 | 1009.8 |
| 20260508115538 | 4 | 99 | 0.0 | 4.8 | 0.00 | 0.00 | 0.00 | 1 | 1009.8 |
| 20260508115454 | 4 | 103 | 1.6 | 4.8 | 0.00 | 0.00 | 0.00 | 1 | 1009.8 |
| 20260508115406 | 4 | 103 | 1.6 | 4.8 | 0.00 | 0.00 | 0.00 | 1 | 1009.8 |
| 20260508115223 | 4 | 110 | 1.6 | 4.8 | 0.00 | 0.00 | 0.00 | 1 | 1009.8 |
| 20260508115126 | 3 | 110 | 1.6 | 4.8 | 0.00 | 0.00 | 0.00 | 1 | 1009.9 |
| 20260508115030 | 3 | 110 | 1.6 | 4.8 | 0.00 | 0.00 | 0.00 | 1 | 1009.8 |
| 20260508114953 | 3 | 110 | 3.2 | 4.8 | 0.00 | 0.00 | 0.00 | 1 | 1009.8 |
| 20260508114916 | 3 | 111 | 1.6 | 4.8 | 0.00 | 0.00 | 0.00 | 1 | 1009.8 |
| 20260508114739 | 3 | 14 | 1.6 | 4.8 | 0.00 | 0.00 | 0.00 | 1 | 1009.8 |
| 20260508114659 | 3 | 360 | 1.6 | 4.8 | 0.00 | 0.00 | 0.00 | 1 | 1009.8 |
| 20260508114531 | 3 | 107 | 3.2 | 6.4 | 0.00 | 0.00 | 0.00 | 1 | 1009.8 |
| 20260508114425 | 3 | 129 | 1.6 | 6.4 | 0.00 | 0.00 | 0.00 | 1 | 1009.8 |
| 20260508114243 | 3 | 337 | 0.0 | 6.4 | 0.00 | 0.00 | 0.00 | 1 | 1009.8 |
| 20260508114146 | 3 | 360 | 0.0 | 6.4 | 0.00 | 0.00 | 0.00 | 1 | 1009.8 |
| 20260508114055 | 3 | 106 | 1.6 | 6.4 | 0.00 | 0.00 | 0.00 | 1 | 1009.7 |
| 20260508114016 | 3 | 144 | 1.6 | 6.4 | 0.00 | 0.00 | 0.00 | 1 | 1009.7 |
| 20260508113846 | 3 | 180 | 3.2 | 6.4 | 0.00 | 0.00 | 0.00 | 1 | 1009.7 |
| 20260508113749 | 3 | 219 | 4.8 | 6.4 | 0.00 | 0.00 | 0.00 | 1 | 1009.7 |
| 20260508113645 | 3 | 227 | 3.2 | 6.4 | 0.00 | 0.00 | 0.00 | 1 | 1009.7 |
| 20260508113528 | 2 | 177 | 3.2 | 6.4 | 0.00 | 0.00 | 0.00 | 1 | 1009.7 |
| 20260508113451 | 2 | 173 | 3.2 | 6.4 | 0.00 | 0.00 | 0.00 | 1 | 1009.7 |
| 20260508113414 | 2 | 186 | 3.2 | 6.4 | 0.00 | 0.00 | 0.00 | 1 | 1009.8 |
| 20260508113237 | 2 | 211 | 1.6 | 6.4 | 0.00 | 0.00 | 0.00 | 1 | 1009.7 |
| 20260508113159 | 2 | 233 | 1.6 | 6.4 | 0.00 | 0.00 | 0.00 | 1 | 1009.7 |
| 20260508113117 | 2 | 213 | 0.0 | 1.6 | 0.00 | 0.00 | 0.00 | 1 | 1009.7 |
| 20260508112928 | 2 | 338 | 0.0 | 1.6 | 0.00 | 0.00 | 0.00 | 1 | 1009.7 |
| 20260508112844 | 2 | 332 | 0.0 | 1.6 | 0.00 | 0.00 | 0.00 | 1 | 1009.7 |
| 20260508112715 | 2 | 332 | 0.0 | 1.6 | 0.00 | 0.00 | 0.00 | 1 | 1009.7 |
| 20260508112614 | 2 | 331 | 0.0 | 1.6 | 0.00 | 0.00 | 0.00 | 1 | 1009.8 |
| 20260508112519 | 2 | 331 | 0.0 | 1.6 | 0.00 | 0.00 | 0.00 | 1 | 1009.7 |
| 20260508112442 | 2 | 331 | 0.0 | 1.6 | 0.00 | 0.00 | 0.00 | 1 | 1009.7 |
| 20260508112311 | 2 | 200 | 0.0 | 1.6 | 0.00 | 0.00 | 0.00 | 1 | 1009.7 |
| 20260508112225 | 2 | 200 | 0.0 | 1.6 | 0.00 | 0.00 | 0.00 | 1 | 1009.7 |
| 20260508112034 | 2 | 181 | 0.0 | 1.6 | 0.00 | 0.00 | 0.00 | 1 | 1009.6 |
| 20260508111951 | 2 | 65 | 0.0 | 1.6 | 0.00 | 0.00 | 0.00 | 1 | 1009.6 |
| 20260508111917 | 2 | 62 | 0.0 | 1.6 | 0.00 | 0.00 | 0.00 | 1 | 1009.6 |
| 20260508111733 | 2 | 36 | 0.0 | 1.6 | 0.00 | 0.00 | 0.00 | 1 | 1009.6 |
| 20260508111648 | 2 | 36 | 0.0 | 1.6 | 0.00 | 0.00 | 0.00 | 1 | 1009.6 |
| 20260508111508 | 2 | 36 | 0.0 | 1.6 | 0.00 | 0.00 | 0.00 | 1 | 1009.5 |
| 20260508111429 | 2 | 36 | 0.0 | 1.6 | 0.00 | 0.00 | 0.00 | 1 | 1009.5 |
| 20260508111232 | 2 | 36 | 0.0 | 1.6 | 0.00 | 0.00 | 0.00 | 1 | 1009.5 |
| 20260508111153 | 2 | 36 | 0.0 | 1.6 | 0.00 | 0.00 | 0.00 | 1 | 1009.5 |
| 20260508111058 | 2 | 36 | 0.0 | 1.6 | 0.00 | 0.00 | 0.00 | 1 | 1009.6 |
| 20260508110958 | 2 | 36 | 0.0 | 1.6 | 0.00 | 0.00 | 0.00 | 1 | 1009.6 |
| 20260508110900 | 2 | 36 | 0.0 | 3.2 | 0.00 | 0.00 | 0.00 | 1 | 1009.6 |
| 20260508110748 | 1 | 261 | 0.0 | 3.2 | 0.00 | 0.00 | 0.00 | 1 | 1009.5 |
| 20260508110648 | 1 | 261 | 0.0 | 3.2 | 0.00 | 0.00 | 0.00 | 1 | 1009.5 |
| 20260508110520 | 1 | 261 | 0.0 | 3.2 | 0.00 | 0.00 | 0.00 | 1 | 1009.5 |
| 20260508110414 | 1 | 261 | 0.0 | 3.2 | 0.00 | 0.00 | 0.00 | 1 | 1009.5 |
| 20260508110225 | 1 | 336 | 1.6 | 3.2 | 0.00 | 0.00 | 0.00 | 1 | 1009.4 |
| 20260508110138 | 1 | 340 | 1.6 | 3.2 | 0.00 | 0.00 | 0.00 | 1 | 1009.4 |
| 20260508105926 | 1 | 346 | 1.6 | 3.2 | 0.00 | 0.00 | 0.00 | 1 | 1009.4 |
| 20260508105843 | 1 | 32 | 0.0 | 1.6 | 0.00 | 0.00 | 0.00 | 1 | 1009.4 |
| 20260508105805 | 1 | 32 | 0.0 | 1.6 | 0.00 | 0.00 | 0.00 | 1 | 1009.4 |
| 20260508105727 | 1 | 267 | 0.0 | 1.6 | 0.00 | 0.00 | 0.00 | 1 | 1009.4 |
| 20260508105619 | 1 | 267 | 0.0 | 1.6 | 0.00 | 0.00 | 0.00 | 1 | 1009.4 |
| 20260508105434 | 1 | 267 | 0.0 | 1.6 | 0.00 | 0.00 | 0.00 | 1 | 1009.4 |
| 20260508105329 | 1 | 267 | 0.0 | 1.6 | 0.00 | 0.00 | 0.00 | 1 | 1009.4 |
| 20260508105224 | 1 | 350 | 0.0 | 1.6 | 0.00 | 0.00 | 0.00 | 1 | 1009.4 |
| 20260508105156 | 1 | 347 | 0.0 | 1.6 | 0.00 | 0.00 | 0.00 | 1 | 1009.4 |
| 20260508105117 | 1 | 313 | 0.0 | 1.6 | 0.00 | 0.00 | 0.00 | 1 | 1009.4 |
| 20260508105021 | 1 | 313 | 0.0 | 1.6 | 0.00 | 0.00 | 0.00 | 1 | 1009.3 |
| 20260508104943 | 1 | 253 | 0.0 | 1.6 | 0.00 | 0.00 | 0.00 | 1 | 1009.3 |
| 20260508104812 | 1 | 323 | 0.0 | 1.6 | 0.00 | 0.00 | 0.00 | 1 | 1009.4 |
| 20260508104727 | 1 | 323 | 0.0 | 1.6 | 0.00 | 0.00 | 0.00 | 1 | 1009.4 |
| 20260508104540 | 1 | 333 | 0.0 | 1.6 | 0.00 | 0.00 | 0.00 | 1 | 1009.3 |
| 20260508104504 | 1 | 336 | 0.0 | 1.6 | 0.00 | 0.00 | 0.00 | 1 | 1009.3 |
| 20260508104419 | 1 | 336 | 0.0 | 1.6 | 0.00 | 0.00 | 0.00 | 1 | 1009.4 |
| 20260508104229 | 1 | 312 | 0.0 | 1.6 | 0.00 | 0.00 | 0.00 | 1 | 1009.3 |
| 20260508104123 | 1 | 312 | 0.0 | 1.6 | 0.00 | 0.00 | 0.00 | 1 | 1009.2 |
| 20260508104046 | 1 | 311 | 0.0 | 1.6 | 0.00 | 0.00 | 0.00 | 1 | 1009.2 |
| 20260508103952 | 1 | 15 | 0.0 | 1.6 | 0.00 | 0.00 | 0.00 | 1 | 1009.2 |
| 20260508103915 | 1 | 15 | 0.0 | 1.6 | 0.00 | 0.00 | 0.00 | 1 | 1009.2 |
| 20260508103718 | 0 | 41 | 0.0 | 1.6 | 0.00 | 0.00 | 0.00 | 1 | 1009.2 |
| 20260508103635 | 0 | 41 | 0.0 | 1.6 | 0.00 | 0.00 | 0.00 | 1 | 1009.2 |
| 20260508103539 | 0 | 41 | 0.0 | 1.6 | 0.00 | 0.00 | 0.00 | 1 | 1009.2 |
| 20260508103443 | 0 | 308 | 0.0 | 1.6 | 0.00 | 0.00 | 0.00 | 1 | 1009.2 |
| 20260508103406 | 0 | 308 | 0.0 | 1.6 | 0.00 | 0.00 | 0.00 | 1 | 1009.2 |
| 20260508103308 | 0 | 308 | 0.0 | 1.6 | 0.00 | 0.00 | 0.00 | 1 | 1009.1 |
| 20260508103229 | 0 | 308 | 0.0 | 1.6 | 0.00 | 0.00 | 0.00 | 1 | 1009.1 |
| 20260508103033 | 0 | 305 | 0.0 | 3.2 | 0.00 | 0.00 | 0.00 | 1 | 1009.1 |
| 20260508102955 | 0 | 350 | 0.0 | 3.2 | 0.00 | 0.00 | 0.00 | 1 | 1009.1 |
| 20260508102837 | 0 | 350 | 0.0 | 3.2 | 0.00 | 0.00 | 0.00 | 1 | 1009.1 |
| 20260508102810 | 0 | 25 | 0.0 | 3.2 | 0.00 | 0.00 | 0.00 | 1 | 1009.1 |
| 20260508102714 | 0 | 25 | 0.0 | 3.2 | 0.00 | 0.00 | 0.00 | 1 | 1009.1 |
| 20260508102618 | 0 | 31 | 0.0 | 3.2 | 0.00 | 0.00 | 0.00 | 1 | 1009.1 |
| 20260508102540 | 0 | 34 | 0.0 | 3.2 | 0.00 | 0.00 | 0.00 | 1 | 1009.1 |
| 20260508102409 | 0 | 34 | 1.6 | 3.2 | 0.00 | 0.00 | 0.00 | 1 | 1009.1 |
| 20260508102323 | 0 | 337 | 0.0 | 3.2 | 0.00 | 0.00 | 0.00 | 1 | 1009.1 |
| 20260508102134 | 0 | 340 | 1.6 | 3.2 | 0.00 | 0.00 | 0.00 | 1 | 1009.0 |
| 20260508102047 | 0 | 340 | 1.6 | 3.2 | 0.00 | 0.00 | 0.00 | 1 | 1009.0 |
| 20260508101836 | 0 | 340 | 0.0 | 3.2 | 0.00 | 0.00 | 0.00 | 1 | 1009.0 |
| 20260508101751 | 0 | 340 | 0.0 | 3.2 | 0.00 | 0.00 | 0.00 | 1 | 1009.0 |
| 20260508101539 | 0 | 238 | 0.0 | 3.2 | 0.00 | 0.00 | 0.00 | 1 | 1009.0 |
| 20260508101439 | 0 | 238 | 1.6 | 3.2 | 0.00 | 0.00 | 0.00 | 1 | 1009.0 |
| 20260508101322 | 0 | 238 | 0.0 | 3.2 | 0.00 | 0.00 | 0.00 | 1 | 1009.0 |
| 20260508101244 | 0 | 237 | 0.0 | 0.0 | 0.00 | 0.00 | 0.00 | 1 | 1009.0 |
| 20260508101205 | 0 | 237 | 0.0 | 1.6 | 0.00 | 0.00 | 0.00 | 1 | 1009.0 |
| 20260508101110 | 0 | 237 | 0.0 | 1.6 | 0.00 | 0.00 | 0.00 | 1 | 1009.0 |
| 20260508101032 | 0 | 237 | 0.0 | 1.6 | 0.00 | 0.00 | 0.00 | 1 | 1009.0 |
| 20260508100836 | 0 | 237 | 0.0 | 1.6 | 0.00 | 0.00 | 0.00 | 1 | 1009.0 |
| 20260508100736 | 0 | 237 | 0.0 | 1.6 | 0.00 | 0.00 | 0.00 | 1 | 1009.0 |
| 20260508100624 | 0 | 323 | 0.0 | 1.6 | 0.00 | 0.00 | 0.00 | 1 | 1009.0 |
| 20260508100546 | 0 | 323 | 0.0 | 1.6 | 0.00 | 0.00 | 0.00 | 1 | 1009.0 |
| 20260508100448 | 0 | 323 | 0.0 | 1.6 | 0.00 | 0.00 | 0.00 | 1 | 1009.0 |
| 20260508100331 | 0 | 330 | 0.0 | 1.6 | 0.00 | 0.00 | 0.00 | 1 | 1009.0 |
| 20260508100255 | 0 | 344 | 0.0 | 1.6 | 0.00 | 0.00 | 0.00 | 1 | 1009.0 |
| 20260508100209 | 0 | 331 | 0.0 | 1.6 | 0.00 | 0.00 | 0.00 | 1 | 1009.0 |
| 20260508100031 | 0 | 355 | 0.0 | 1.6 | 0.00 | 0.00 | 0.00 | 1 | 1009.0 |
| 20260508095944 | 0 | 5 | 0.0 | 1.6 | 0.00 | 0.00 | 0.00 | 1 | 1009.0 |
| 20260508095734 | 0 | 5 | 0.0 | 1.6 | 0.00 | 0.00 | 0.00 | 1 | 1009.0 |
| 20260508095649 | 0 | 5 | 0.0 | 1.6 | 0.00 | 0.00 | 0.00 | 1 | 1008.9 |
| 20260508095444 | 0 | 5 | 0.0 | 0.0 | 0.00 | 0.00 | 0.00 | 1 | 1008.9 |
| 20260508095317 | 0 | 5 | 0.0 | 0.0 | 0.00 | 0.00 | 0.00 | 1 | 1008.8 |
| 20260508095249 | 0 | 5 | 0.0 | 0.0 | 0.00 | 0.00 | 0.00 | 1 | 1008.8 |
| 20260508095153 | 0 | 5 | 0.0 | 0.0 | 0.00 | 0.00 | 0.00 | 1 | 1008.8 |
| 20260508095033 | 0 | 5 | 0.0 | 0.0 | 0.00 | 0.00 | 0.00 | 1 | 1008.8 |
| 20260508094938 | 0 | 5 | 0.0 | 0.0 | 0.00 | 0.00 | 0.00 | 1 | 1008.9 |
| 20260508094840 | 0 | 5 | 0.0 | 0.0 | 0.00 | 0.00 | 0.00 | 1 | 1008.9 |
| 20260508094710 | 0 | 5 | 0.0 | 0.0 | 0.00 | 0.00 | 0.00 | 1 | 1008.9 |
| 20260508094624 | 0 | 5 | 0.0 | 0.0 | 0.00 | 0.00 | 0.00 | 1 | 1008.8 |
| 20260508094436 | 0 | 5 | 0.0 | 0.0 | 0.00 | 0.00 | 0.00 | 1 | 1008.9 |
| 20260508094400 | 0 | 5 | 0.0 | 0.0 | 0.00 | 0.00 | 0.00 | 1 | 1008.9 |
| 20260508094314 | 0 | 5 | 0.0 | 0.0 | 0.00 | 0.00 | 0.00 | 1 | 1008.9 |
| 20260508094125 | 0 | 5 | 0.0 | 0.0 | 0.00 | 0.00 | 0.00 | 1 | 1008.8 |
| 20260508094040 | 0 | 5 | 0.0 | 0.0 | 0.00 | 0.00 | 0.00 | 1 | 1008.8 |
| 20260508093944 | 0 | 5 | 0.0 | 0.0 | 0.00 | 0.00 | 0.00 | 1 | 1008.8 |
| 20260508093857 | 0 | 5 | 0.0 | 0.0 | 0.00 | 0.00 | 0.00 | 1 | 1008.7 |
| 20260508093800 | 0 | 5 | 0.0 | 0.0 | 0.00 | 0.00 | 0.00 | 1 | 1008.7 |
| 20260508093721 | 0 | 5 | 0.0 | 0.0 | 0.00 | 0.00 | 0.00 | 1 | 1008.7 |
| 20260508093604 | 0 | 5 | 0.0 | 0.0 | 0.00 | 0.00 | 0.00 | 1 | 1008.7 |
| 20260508093525 | 0 | 5 | 0.0 | 0.0 | 0.00 | 0.00 | 0.00 | 1 | 1008.7 |
| 20260508093340 | 0 | 5 | 0.0 | 0.0 | 0.00 | 0.00 | 0.00 | 1 | 1008.7 |
| 20260508093233 | 0 | 5 | 0.0 | 0.0 | 0.00 | 0.00 | 0.00 | 1 | 1008.7 |
| 20260508093157 | 0 | 5 | 0.0 | 0.0 | 0.00 | 0.00 | 0.00 | 1 | 1008.7 |
| 20260508093040 | 0 | 5 | 0.0 | 0.0 | 0.00 | 0.00 | 0.00 | 1 | 1008.7 |
| 20260508093004 | 0 | 5 | 0.0 | 0.0 | 0.00 | 0.00 | 0.00 | 1 | 1008.7 |
| 20260508092917 | 0 | 5 | 0.0 | 0.0 | 0.00 | 0.00 | 0.00 | 1 | 1008.7 |
| 20260508092747 | 0 | 5 | 0.0 | 0.0 | 0.00 | 0.00 | 0.00 | 1 | 1008.8 |
| 20260508092648 | 0 | 5 | 0.0 | 0.0 | 0.00 | 0.00 | 0.00 | 1 | 1008.8 |
| 20260508092528 | 0 | 5 | 0.0 | 0.0 | 0.00 | 0.00 | 0.00 | 1 | 1008.8 |
| 20260508092432 | 0 | 5 | 0.0 | 0.0 | 0.00 | 0.00 | 0.00 | 1 | 1008.8 |
| 20260508092353 | 0 | 5 | 0.0 | 0.0 | 0.00 | 0.00 | 0.00 | 1 | 1008.7 |
| 20260508092254 | 0 | 5 | 0.0 | 0.0 | 0.00 | 0.00 | 0.00 | 1 | 1008.7 |
| 20260508092138 | 0 | 5 | 0.0 | 0.0 | 0.00 | 0.00 | 0.00 | 1 | 1008.6 |
| 20260508092100 | 0 | 5 | 0.0 | 0.0 | 0.00 | 0.00 | 0.00 | 1 | 1008.7 |
| 20260508091923 | 0 | 5 | 0.0 | 0.0 | 0.00 | 0.00 | 0.00 | 1 | 1008.7 |
| 20260508091845 | 0 | 5 | 0.0 | 0.0 | 0.00 | 0.00 | 0.00 | 1 | 1008.7 |
| 20260508091630 | 0 | 5 | 0.0 | 0.0 | 0.00 | 0.00 | 0.00 | 1 | 1008.7 |
| 20260508091535 | 0 | 5 | 0.0 | 0.0 | 0.00 | 0.00 | 0.00 | 1 | 1008.7 |
| 20260508091437 | 0 | 5 | 0.0 | 0.0 | 0.00 | 0.00 | 0.00 | 1 | 1008.6 |
| 20260508091341 | 0 | 5 | 0.0 | 0.0 | 0.00 | 0.00 | 0.00 | 1 | 1008.6 |
| 20260508091234 | 0 | 5 | 0.0 | 0.0 | 0.00 | 0.00 | 0.00 | 1 | 1008.5 |
| 20260508091158 | 0 | 5 | 0.0 | 0.0 | 0.00 | 0.00 | 0.00 | 1 | 1008.5 |
| 20260508091024 | 0 | 5 | 0.0 | 0.0 | 0.00 | 0.00 | 0.00 | 1 | 1008.6 |
| 20260508090940 | 0 | 5 | 0.0 | 0.0 | 0.00 | 0.00 | 0.00 | 1 | 1008.6 |
| 20260508090839 | 0 | 5 | 0.0 | 0.0 | 0.00 | 0.00 | 0.00 | 1 | 1008.6 |
| 20260508090747 | 0 | 5 | 0.0 | 0.0 | 0.00 | 0.00 | 0.00 | 1 | 1008.6 |
| 20260508090709 | 0 | 5 | 0.0 | 0.0 | 0.00 | 0.00 | 0.00 | 1 | 1008.6 |
| 20260508090541 | 0 | 5 | 0.0 | 1.6 | 0.00 | 0.00 | 0.00 | 1 | 1008.6 |
| 20260508090433 | 0 | 5 | 0.0 | 1.6 | 0.00 | 0.00 | 0.00 | 1 | 1008.6 |
| 20260508090231 | 0 | 5 | 0.0 | 1.6 | 0.00 | 0.00 | 0.00 | 1 | 1008.6 |
| 20260508090133 | 0 | 5 | 0.0 | 1.6 | 0.00 | 0.00 | 0.00 | 1 | 1008.5 |
| 20260508085935 | 0 | 5 | 0.0 | 3.2 | 0.00 | 0.00 | 0.00 | 1 | 1008.6 |
| 20260508085859 | 0 | 5 | 0.0 | 3.2 | 0.00 | 0.00 | 0.00 | 1 | 1008.6 |
| 20260508085724 | 0 | 5 | 1.6 | 3.2 | 0.00 | 0.00 | 0.00 | 1 | 1008.5 |
| 20260508085637 | 0 | 5 | 1.6 | 3.2 | 0.00 | 0.00 | 0.00 | 1 | 1008.6 |
| 20260508085513 | 0 | 5 | 0.0 | 3.2 | 0.00 | 0.00 | 0.00 | 1 | 1008.6 |
| 20260508085435 | 0 | 5 | 0.0 | 3.2 | 0.00 | 0.00 | 0.00 | 1 | 1008.6 |
| 20260508085307 | 0 | 5 | 1.6 | 3.2 | 0.00 | 0.00 | 0.00 | 1 | 1008.6 |
| 20260508085219 | 0 | 5 | 1.6 | 3.2 | 0.00 | 0.00 | 0.00 | 1 | 1008.6 |
| 20260508085028 | 0 | 5 | 0.0 | 1.6 | 0.00 | 0.00 | 0.00 | 1 | 1008.6 |
| 20260508084943 | 0 | 5 | 0.0 | 1.6 | 0.00 | 0.00 | 0.00 | 1 | 1008.6 |
| 20260508084814 | 0 | 5 | 0.0 | 1.6 | 0.00 | 0.00 | 0.00 | 1 | 1008.5 |
| 20260508084737 | 0 | 5 | 0.0 | 1.6 | 0.00 | 0.00 | 0.00 | 1 | 1008.6 |
| 20260508084536 | 0 | 5 | 0.0 | 1.6 | 0.00 | 0.00 | 0.00 | 1 | 1008.6 |
| 20260508084500 | 0 | 5 | 0.0 | 1.6 | 0.00 | 0.00 | 0.00 | 1 | 1008.6 |
| 20260508084327 | 0 | 5 | 0.0 | 0.0 | 0.00 | 0.00 | 0.00 | 1 | 1008.5 |
| 20260508084242 | 0 | 5 | 0.0 | 0.0 | 0.00 | 0.00 | 0.00 | 1 | 1008.5 |
| 20260508084144 | 0 | 5 | 0.0 | 0.0 | 0.00 | 0.00 | 0.00 | 1 | 1008.6 |
| 20260508084048 | 0 | 5 | 0.0 | 0.0 | 0.00 | 0.00 | 0.00 | 1 | 1008.6 |
| 20260508084009 | 0 | 5 | 0.0 | 0.0 | 0.00 | 0.00 | 0.00 | 1 | 1008.5 |
| 20260508083839 | 0 | 5 | 0.0 | 0.0 | 0.00 | 0.00 | 0.00 | 1 | 1008.5 |
| 20260508083734 | 0 | 5 | 0.0 | 0.0 | 0.00 | 0.00 | 0.00 | 1 | 1008.5 |
| 20260508083604 | 0 | 5 | 0.0 | 0.0 | 0.00 | 0.00 | 0.00 | 1 | 1008.5 |
| 20260508083525 | 0 | 5 | 0.0 | 0.0 | 0.00 | 0.00 | 0.00 | 1 | 1008.5 |
| 20260508083330 | 0 | 5 | 0.0 | 0.0 | 0.00 | 0.00 | 0.00 | 1 | 1008.5 |
| 20260508083237 | 0 | 5 | 0.0 | 0.0 | 0.00 | 0.00 | 0.00 | 1 | 1008.5 |
| 20260508083139 | 0 | 5 | 0.0 | 0.0 | 0.00 | 0.00 | 0.00 | 1 | 1008.5 |
| 20260508083101 | 0 | 5 | 0.0 | 0.0 | 0.00 | 0.00 | 0.00 | 1 | 1008.5 |
| 20260508083024 | 0 | 5 | 0.0 | 0.0 | 0.00 | 0.00 | 0.00 | 1 | 1008.5 |
| 20260508082827 | 0 | 5 | 0.0 | 0.0 | 0.00 | 0.00 | 0.00 | 1 | 1008.5 |
| 20260508082750 | 0 | 5 | 0.0 | 0.0 | 0.00 | 0.00 | 0.00 | 1 | 1008.5 |
| 20260508082615 | 0 | 5 | 0.0 | 0.0 | 0.00 | 0.00 | 0.00 | 1 | 1008.4 |
| 20260508082539 | 0 | 5 | 0.0 | 0.0 | 0.00 | 0.00 | 0.00 | 1 | 1008.5 |
| 20260508082410 | 0 | 5 | 0.0 | 0.0 | 0.00 | 0.00 | 0.00 | 1 | 1008.5 |
| 20260508082336 | 0 | 5 | 0.0 | 0.0 | 0.00 | 0.00 | 0.00 | 1 | 1008.4 |
| 20260508082206 | 0 | 5 | 0.0 | 0.0 | 0.00 | 0.00 | 0.00 | 1 | 1008.4 |
| 20260508082121 | 0 | 5 | 0.0 | 0.0 | 0.00 | 0.00 | 0.00 | 1 | 1008.5 |
| 20260508081952 | 0 | 5 | 0.0 | 0.0 | 0.00 | 0.00 | 0.00 | 1 | 1008.5 |
| 20260508081826 | 0 | 5 | 0.0 | 0.0 | 0.00 | 0.00 | 0.00 | 1 | 1008.5 |
| 20260508081748 | 0 | 5 | 0.0 | 0.0 | 0.00 | 0.00 | 0.00 | 1 | 1008.5 |
| 20260508081709 | 0 | 5 | 0.0 | 0.0 | 0.00 | 0.00 | 0.00 | 1 | 1008.5 |
| 20260508081623 | 0 | 5 | 0.0 | 0.0 | 0.00 | 0.00 | 0.00 | 1 | 1008.4 |
| 20260508081504 | 0 | 5 | 0.0 | 0.0 | 0.00 | 0.00 | 0.00 | 1 | 1008.5 |
| 20260508081426 | 0 | 5 | 0.0 | 0.0 | 0.00 | 0.00 | 0.00 | 1 | 1008.4 |
| 20260508081229 | 0 | 5 | 0.0 | 3.2 | 0.00 | 0.00 | 0.00 | 1 | 1008.4 |
| 20260508081157 | 0 | 5 | 0.0 | 3.2 | 0.00 | 0.00 | 0.00 | 1 | 1008.4 |
| 20260508081040 | 0 | 5 | 0.0 | 3.2 | 0.00 | 0.00 | 0.00 | 1 | 1008.4 |
| 20260508081004 | 0 | 5 | 0.0 | 3.2 | 0.00 | 0.00 | 0.00 | 1 | 1008.4 |
| 20260508080825 | 0 | 5 | 0.0 | 3.2 | 0.00 | 0.00 | 0.00 | 1 | 1008.4 |
| 20260508080749 | 0 | 5 | 0.0 | 3.2 | 0.00 | 0.00 | 0.00 | 1 | 1008.4 |
| 20260508080711 | 0 | 5 | 0.0 | 3.2 | 0.00 | 0.00 | 0.00 | 1 | 1008.4 |
| 20260508080616 | 0 | 5 | 0.0 | 3.2 | 0.00 | 0.00 | 0.00 | 1 | 1008.4 |
| 20260508080537 | 0 | 5 | 0.0 | 3.2 | 0.00 | 0.00 | 0.00 | 1 | 1008.4 |
| 20260508080408 | 0 | 5 | 1.6 | 3.2 | 0.00 | 0.00 | 0.00 | 1 | 1008.4 |
| 20260508080226 | 0 | 360 | 0.0 | 3.2 | 0.00 | 0.00 | 0.00 | 1 | 1008.5 |
| 20260508080130 | 0 | 360 | 0.0 | 3.2 | 0.00 | 0.00 | 0.00 | 1 | 1008.4 |
| 20260508080018 | 0 | 360 | 0.0 | 3.2 | 0.00 | 0.00 | 0.00 | 1 | 1008.4 |
| 20260508075850 | 0 | 360 | 0.0 | 1.6 | 0.00 | 0.00 | 0.00 | 1 | 1008.5 |
| 20260508075742 | 0 | 360 | 0.0 | 1.6 | 0.00 | 0.00 | 0.00 | 1 | 1008.5 |
| 20260508075602 | 0 | 360 | 0.0 | 0.0 | 0.00 | 0.00 | 0.00 | 1 | 1008.4 |
| 20260508075523 | 0 | 360 | 0.0 | 0.0 | 0.00 | 0.00 | 0.00 | 1 | 1008.4 |
| 20260508075354 | 0 | 360 | 0.0 | 0.0 | 0.00 | 0.00 | 0.00 | 1 | 1008.4 |
| 20260508075230 | 0 | 360 | 0.0 | 0.0 | 0.00 | 0.00 | 0.00 | 1 | 1008.4 |
| 20260508075123 | 0 | 360 | 0.0 | 0.0 | 0.00 | 0.00 | 0.00 | 1 | 1008.4 |
| 20260508075045 | 0 | 360 | 0.0 | 0.0 | 0.00 | 0.00 | 0.00 | 1 | 1008.5 |
| 20260508074833 | 0 | 360 | 0.0 | 0.0 | 0.00 | 0.00 | 0.00 | 1 | 1008.4 |
| 20260508074735 | 0 | 360 | 0.0 | 0.0 | 0.00 | 0.00 | 0.00 | 1 | 1008.4 |
| 20260508074638 | 0 | 360 | 0.0 | 0.0 | 0.00 | 0.00 | 0.00 | 1 | 1008.4 |
| 20260508074558 | 0 | 360 | 0.0 | 0.0 | 0.00 | 0.00 | 0.00 | 1 | 1008.4 |
| 20260508074408 | 0 | 360 | 0.0 | 0.0 | 0.00 | 0.00 | 0.00 | 1 | 1008.3 |
| 20260508074222 | 0 | 360 | 0.0 | 0.0 | 0.00 | 0.00 | 0.00 | 1 | 1008.3 |
| 20260508074126 | 0 | 360 | 0.0 | 0.0 | 0.00 | 0.00 | 0.00 | 1 | 1008.3 |
| 20260508074047 | 0 | 360 | 0.0 | 0.0 | 0.00 | 0.00 | 0.00 | 1 | 1008.3 |
| 20260508073833 | 0 | 360 | 0.0 | 0.0 | 0.00 | 0.00 | 0.00 | 1 | 1008.2 |
| 20260508073756 | 0 | 360 | 0.0 | 0.0 | 0.00 | 0.00 | 0.00 | 1 | 1008.2 |
| 20260508073639 | 0 | 360 | 0.0 | 0.0 | 0.00 | 0.00 | 0.00 | 1 | 1008.3 |
| 20260508073543 | 0 | 360 | 0.0 | 0.0 | 0.00 | 0.00 | 0.00 | 1 | 1008.3 |
| 20260508073436 | 0 | 360 | 0.0 | 0.0 | 0.00 | 0.00 | 0.00 | 1 | 1008.2 |
| 20260508073339 | 0 | 360 | 0.0 | 0.0 | 0.00 | 0.00 | 0.00 | 1 | 1008.2 |
| 20260508073301 | 0 | 360 | 0.0 | 0.0 | 0.00 | 0.00 | 0.00 | 1 | 1008.2 |
| 20260508073222 | 0 | 360 | 0.0 | 0.0 | 0.00 | 0.00 | 0.00 | 1 | 1008.2 |
| 20260508073030 | 0 | 360 | 0.0 | 0.0 | 0.00 | 0.00 | 0.00 | 1 | 1008.3 |
| 20260508072930 | 0 | 360 | 0.0 | 0.0 | 0.00 | 0.00 | 0.00 | 1 | 1008.3 |
| 20260508072834 | 0 | 360 | 0.0 | 0.0 | 0.00 | 0.00 | 0.00 | 1 | 1008.3 |
| 20260508072756 | 0 | 360 | 0.0 | 0.0 | 0.00 | 0.00 | 0.00 | 1 | 1008.3 |
| 20260508072717 | 0 | 360 | 0.0 | 0.0 | 0.00 | 0.00 | 0.00 | 1 | 1008.3 |
| 20260508072540 | 0 | 360 | 0.0 | 0.0 | 0.00 | 0.00 | 0.00 | 1 | 1008.3 |
| 20260508072441 | 0 | 360 | 0.0 | 0.0 | 0.00 | 0.00 | 0.00 | 1 | 1008.3 |
| 20260508072344 | 0 | 360 | 0.0 | 0.0 | 0.00 | 0.00 | 0.00 | 1 | 1008.3 |
| 20260508072222 | 0 | 360 | 0.0 | 0.0 | 0.00 | 0.00 | 0.00 | 1 | 1008.2 |
| 20260508072125 | 0 | 360 | 0.0 | 0.0 | 0.00 | 0.00 | 0.00 | 1 | 1008.2 |
| 20260508072051 | 0 | 360 | 0.0 | 0.0 | 0.00 | 0.00 | 0.00 | 1 | 1008.2 |
| 20260508071834 | 0 | 360 | 0.0 | 0.0 | 0.00 | 0.00 | 0.00 | 1 | 1008.2 |
| 20260508071735 | 0 | 360 | 0.0 | 0.0 | 0.00 | 0.00 | 0.00 | 1 | 1008.2 |
| 20260508071638 | 0 | 360 | 0.0 | 0.0 | 0.00 | 0.00 | 0.00 | 1 | 1008.2 |
| 20260508071558 | 0 | 360 | 0.0 | 0.0 | 0.00 | 0.00 | 0.00 | 1 | 1008.2 |
| 20260508071430 | 0 | 360 | 0.0 | 0.0 | 0.00 | 0.00 | 0.00 | 1 | 1008.2 |
| 20260508071323 | 0 | 360 | 0.0 | 0.0 | 0.00 | 0.00 | 0.00 | 1 | 1008.2 |
| 20260508071132 | 0 | 360 | 0.0 | 0.0 | 0.00 | 0.00 | 0.00 | 1 | 1008.2 |
| 20260508071034 | 0 | 360 | 0.0 | 0.0 | 0.00 | 0.00 | 0.00 | 1 | 1008.2 |
| 20260508070837 | 0 | 360 | 0.0 | 0.0 | 0.00 | 0.00 | 0.00 | 1 | 1008.3 |
| 20260508070743 | 0 | 360 | 0.0 | 0.0 | 0.00 | 0.00 | 0.00 | 1 | 1008.3 |
| 20260508070627 | 0 | 360 | 0.0 | 0.0 | 0.00 | 0.00 | 0.00 | 1 | 1008.3 |
| 20260508070549 | 0 | 360 | 0.0 | 0.0 | 0.00 | 0.00 | 0.00 | 1 | 1008.3 |
| 20260508070431 | 0 | 360 | 0.0 | 0.0 | 0.00 | 0.00 | 0.00 | 1 | 1008.3 |
| 20260508070354 | 0 | 360 | 0.0 | 0.0 | 0.00 | 0.00 | 0.00 | 1 | 1008.3 |
| 20260508070316 | 0 | 360 | 0.0 | 0.0 | 0.00 | 0.00 | 0.00 | 1 | 1008.3 |
| 20260508070139 | 0 | 360 | 0.0 | 0.0 | 0.00 | 0.00 | 0.00 | 1 | 1008.3 |
| 20260508070040 | 0 | 360 | 0.0 | 0.0 | 0.00 | 0.00 | 0.00 | 1 | 1008.3 |
| 20260508065944 | 0 | 360 | 0.0 | 0.0 | 0.00 | 0.00 | 0.00 | 1 | 1008.3 |
| 20260508065844 | 0 | 360 | 0.0 | 0.0 | 0.00 | 0.00 | 0.00 | 1 | 1008.3 |
| 20260508065629 | 0 | 360 | 0.0 | 0.0 | 0.00 | 0.00 | 0.00 | 1 | 1008.2 |
| 20260508065534 | 0 | 360 | 0.0 | 0.0 | 0.00 | 0.00 | 0.00 | 1 | 1008.2 |
| 20260508065446 | 0 | 360 | 0.0 | 0.0 | 0.00 | 0.00 | 0.00 | 1 | 1008.3 |
| 20260508065335 | 0 | 360 | 0.0 | 0.0 | 0.00 | 0.00 | 0.00 | 1 | 1008.2 |
| 20260508065241 | 0 | 360 | 0.0 | 0.0 | 0.00 | 0.00 | 0.00 | 1 | 1008.2 |
| 20260508065202 | 0 | 360 | 0.0 | 0.0 | 0.00 | 0.00 | 0.00 | 1 | 1008.3 |
| 20260508065033 | 0 | 360 | 0.0 | 0.0 | 0.00 | 0.00 | 0.00 | 1 | 1008.2 |
| 20260508064925 | 0 | 360 | 0.0 | 0.0 | 0.00 | 0.00 | 0.00 | 1 | 1008.3 |
| 20260508064744 | 0 | 360 | 0.0 | 1.6 | 0.00 | 0.00 | 0.00 | 1 | 1008.3 |
| 20260508064645 | 0 | 360 | 0.0 | 1.6 | 0.00 | 0.00 | 0.00 | 1 | 1008.3 |
| 20260508064533 | 0 | 360 | 0.0 | 1.6 | 0.00 | 0.00 | 0.00 | 1 | 1008.3 |
| 20260508064444 | 0 | 360 | 0.0 | 1.6 | 0.00 | 0.00 | 0.00 | 1 | 1008.3 |
| 20260508064346 | 0 | 360 | 0.0 | 1.6 | 0.00 | 0.00 | 0.00 | 1 | 1008.3 |
| 20260508064251 | 0 | 360 | 0.0 | 1.6 | 0.00 | 0.00 | 0.00 | 1 | 1008.3 |
| 20260508064212 | 0 | 360 | 0.0 | 1.6 | 0.00 | 0.00 | 0.00 | 1 | 1008.3 |
| 20260508063951 | 0 | 360 | 0.0 | 1.6 | 0.00 | 0.00 | 0.00 | 1 | 1008.4 |
| 20260508063844 | 0 | 360 | 0.0 | 1.6 | 0.00 | 0.00 | 0.00 | 1 | 1008.4 |
| 20260508063715 | 0 | 360 | 0.0 | 1.6 | 0.00 | 0.00 | 0.00 | 1 | 1008.4 |
| 20260508063624 | 0 | 360 | 0.0 | 1.6 | 0.00 | 0.00 | 0.00 | 1 | 1008.4 |
| 20260508063427 | 0 | 360 | 0.0 | 1.6 | 0.00 | 0.00 | 0.00 | 1 | 1008.3 |
| 20260508063351 | 0 | 360 | 0.0 | 1.6 | 0.00 | 0.00 | 0.00 | 1 | 1008.3 |
| 20260508063237 | 0 | 360 | 0.0 | 1.6 | 0.00 | 0.00 | 0.00 | 1 | 1008.3 |
| 20260508063137 | 0 | 360 | 0.0 | 1.6 | 0.00 | 0.00 | 0.00 | 1 | 1008.3 |
| 20260508063102 | 0 | 360 | 0.0 | 0.0 | 0.00 | 0.00 | 0.00 | 1 | 1008.3 |
| 20260508063006 | 0 | 360 | 0.0 | 0.0 | 0.00 | 0.00 | 0.00 | 1 | 1008.3 |
| 20260508062927 | 0 | 360 | 0.0 | 0.0 | 0.00 | 0.00 | 0.00 | 1 | 1008.3 |
| 20260508062730 | 0 | 360 | 0.0 | 0.0 | 0.00 | 0.00 | 0.00 | 1 | 1008.3 |
| 20260508062633 | 0 | 360 | 0.0 | 0.0 | 0.00 | 0.00 | 0.00 | 1 | 1008.4 |
| 20260508062536 | 0 | 360 | 0.0 | 0.0 | 0.00 | 0.00 | 0.00 | 1 | 1008.3 |
| 20260508062459 | 0 | 360 | 0.0 | 0.0 | 0.00 | 0.00 | 0.00 | 1 | 1008.3 |
| 20260508062433 | 0 | 360 | 0.0 | 0.0 | 0.00 | 0.00 | 0.00 | 1 | 1008.4 |
| 20260508062242 | 0 | 360 | 0.0 | 0.0 | 0.00 | 0.00 | 0.00 | 1 | 1008.3 |
| 20260508062202 | 0 | 360 | 0.0 | 0.0 | 0.00 | 0.00 | 0.00 | 1 | 1008.3 |
| 20260508062107 | 0 | 360 | 0.0 | 0.0 | 0.00 | 0.00 | 0.00 | 1 | 1008.3 |
| 20260508062028 | 0 | 360 | 0.0 | 0.0 | 0.00 | 0.00 | 0.00 | 1 | 1008.4 |
| 20260508061837 | 0 | 360 | 0.0 | 0.0 | 0.00 | 0.00 | 0.00 | 1 | 1008.4 |
| 20260508061729 | 0 | 360 | 0.0 | 0.0 | 0.00 | 0.00 | 0.00 | 1 | 1008.3 |
| 20260508061539 | 0 | 360 | 0.0 | 0.0 | 0.00 | 0.00 | 0.00 | 1 | 1008.3 |
| 20260508061442 | 0 | 360 | 0.0 | 0.0 | 0.00 | 0.00 | 0.00 | 1 | 1008.3 |
| 20260508061336 | 0 | 360 | 0.0 | 0.0 | 0.00 | 0.00 | 0.00 | 1 | 1008.5 |
| 20260508061223 | 0 | 360 | 0.0 | 0.0 | 0.00 | 0.00 | 0.00 | 1 | 1008.4 |
| 20260508061144 | 0 | 360 | 0.0 | 0.0 | 0.00 | 0.00 | 0.00 | 1 | 1008.4 |
| 20260508061016 | 0 | 360 | 0.0 | 0.0 | 0.00 | 0.00 | 0.00 | 1 | 1008.4 |
| 20260508060907 | 0 | 360 | 0.0 | 0.0 | 0.00 | 0.00 | 0.00 | 1 | 1008.4 |
| 20260508060728 | 0 | 360 | 0.0 | 0.0 | 0.00 | 0.00 | 0.00 | 1 | 1008.5 |
| 20260508060641 | 0 | 360 | 0.0 | 0.0 | 0.00 | 0.00 | 0.00 | 1 | 1008.5 |
| 20260508060511 | 0 | 360 | 0.0 | 0.0 | 0.00 | 0.00 | 0.00 | 1 | 1008.4 |
| 20260508060433 | 0 | 360 | 0.0 | 0.0 | 0.00 | 0.00 | 0.00 | 1 | 1008.4 |
| 20260508060235 | 0 | 360 | 0.0 | 1.6 | 0.00 | 0.00 | 0.00 | 1 | 1008.5 |
| 20260508060157 | 0 | 360 | 0.0 | 1.6 | 0.00 | 0.00 | 0.00 | 1 | 1008.5 |
| 20260508060100 | 0 | 360 | 0.0 | 1.6 | 0.00 | 0.00 | 0.00 | 1 | 1008.5 |
| 20260508060006 | 0 | 360 | 0.0 | 1.6 | 0.00 | 0.00 | 0.00 | 1 | 1008.5 |
| 20260508055908 | 0 | 360 | 0.0 | 1.6 | 0.00 | 0.00 | 0.00 | 1 | 1008.5 |
| 20260508055731 | 0 | 360 | 0.0 | 1.6 | 0.00 | 0.00 | 0.00 | 1 | 1008.5 |
| 20260508055651 | 0 | 360 | 0.0 | 1.6 | 0.00 | 0.00 | 0.00 | 1 | 1008.5 |
| 20260508055554 | 0 | 360 | 0.0 | 1.6 | 0.00 | 0.00 | 0.00 | 1 | 1008.5 |
| 20260508055458 | 0 | 360 | 0.0 | 1.6 | 0.00 | 0.00 | 0.00 | 1 | 1008.5 |
| 20260508055420 | 1 | 360 | 1.6 | 1.6 | 0.00 | 0.00 | 0.00 | 1 | 1008.5 |
| 20260508055222 | 1 | 360 | 0.0 | 1.6 | 0.00 | 0.00 | 0.00 | 1 | 1008.5 |
| 20260508055123 | 1 | 360 | 0.0 | 1.6 | 0.00 | 0.00 | 0.00 | 1 | 1008.5 |
| 20260508055026 | 1 | 360 | 0.0 | 1.6 | 0.00 | 0.00 | 0.00 | 1 | 1008.5 |
| 20260508054954 | 1 | 360 | 0.0 | 0.0 | 0.00 | 0.00 | 0.00 | 1 | 1008.5 |
| 20260508054915 | 1 | 360 | 0.0 | 0.0 | 0.00 | 0.00 | 0.00 | 1 | 1008.5 |
| 20260508054739 | 1 | 360 | 0.0 | 0.0 | 0.00 | 0.00 | 0.00 | 1 | 1008.4 |
| 20260508054700 | 1 | 360 | 0.0 | 0.0 | 0.00 | 0.00 | 0.00 | 1 | 1008.4 |
| 20260508054423 | 1 | 360 | 0.0 | 0.0 | 0.00 | 0.00 | 0.00 | 1 | 1008.4 |
| 20260508054336 | 1 | 360 | 0.0 | 0.0 | 0.00 | 0.00 | 0.00 | 1 | 1008.4 |
| 20260508054247 | 1 | 360 | 0.0 | 0.0 | 0.00 | 0.00 | 0.00 | 1 | 1008.4 |
| 20260508054006 | 1 | 360 | 0.0 | 0.0 | 0.00 | 0.00 | 0.00 | 1 | 1008.5 |
| 20260508053921 | 1 | 360 | 0.0 | 0.0 | 0.00 | 0.00 | 0.00 | 1 | 1008.5 |
| 20260508053736 | 1 | 360 | 0.0 | 0.0 | 0.00 | 0.00 | 0.00 | 1 | 1008.5 |
| 20260508053659 | 1 | 360 | 0.0 | 0.0 | 0.00 | 0.00 | 0.00 | 1 | 1008.5 |
| 20260508053541 | 1 | 360 | 0.0 | 0.0 | 0.00 | 0.00 | 0.00 | 1 | 1008.6 |
| 20260508053441 | 1 | 360 | 0.0 | 0.0 | 0.00 | 0.00 | 0.00 | 1 | 1008.6 |
| 20260508053311 | 1 | 360 | 0.0 | 0.0 | 0.00 | 0.00 | 0.00 | 1 | 1008.5 |
| 20260508053225 | 1 | 360 | 0.0 | 0.0 | 0.00 | 0.00 | 0.00 | 1 | 1008.5 |
| 20260508053035 | 1 | 360 | 0.0 | 0.0 | 0.00 | 0.00 | 0.00 | 1 | 1008.5 |
| 20260508052952 | 1 | 360 | 0.0 | 0.0 | 0.00 | 0.00 | 0.00 | 1 | 1008.5 |
| 20260508052913 | 1 | 360 | 0.0 | 0.0 | 0.00 | 0.00 | 0.00 | 1 | 1008.5 |
| 20260508052726 | 1 | 360 | 0.0 | 0.0 | 0.00 | 0.00 | 0.00 | 1 | 1008.6 |
| 20260508052631 | 1 | 360 | 0.0 | 0.0 | 0.00 | 0.00 | 0.00 | 1 | 1008.6 |
| 20260508052533 | 1 | 360 | 0.0 | 0.0 | 0.00 | 0.00 | 0.00 | 1 | 1008.6 |
| 20260508052457 | 1 | 360 | 0.0 | 0.0 | 0.00 | 0.00 | 0.00 | 1 | 1008.6 |
| 20260508052418 | 1 | 360 | 0.0 | 0.0 | 0.00 | 0.00 | 0.00 | 1 | 1008.6 |
| 20260508052322 | 1 | 360 | 0.0 | 0.0 | 0.00 | 0.00 | 0.00 | 1 | 1008.6 |
| 20260508052244 | 1 | 360 | 0.0 | 0.0 | 0.00 | 0.00 | 0.00 | 1 | 1008.6 |
| 20260508052113 | 1 | 360 | 0.0 | 0.0 | 0.00 | 0.00 | 0.00 | 1 | 1008.6 |
| 20260508052027 | 1 | 360 | 0.0 | 0.0 | 0.00 | 0.00 | 0.00 | 1 | 1008.6 |
| 20260508051835 | 1 | 360 | 0.0 | 0.0 | 0.00 | 0.00 | 0.00 | 1 | 1008.6 |
| 20260508051735 | 1 | 360 | 0.0 | 0.0 | 0.00 | 0.00 | 0.00 | 1 | 1008.6 |
| 20260508051538 | 1 | 360 | 0.0 | 0.0 | 0.00 | 0.00 | 0.00 | 1 | 1008.6 |
| 20260508051446 | 1 | 360 | 0.0 | 0.0 | 0.00 | 0.00 | 0.00 | 1 | 1008.6 |
| 20260508051350 | 1 | 360 | 0.0 | 0.0 | 0.00 | 0.00 | 0.00 | 1 | 1008.7 |
| 20260508051231 | 1 | 360 | 0.0 | 0.0 | 0.00 | 0.00 | 0.00 | 1 | 1008.7 |
| 20260508051134 | 1 | 360 | 0.0 | 0.0 | 0.00 | 0.00 | 0.00 | 1 | 1008.7 |
| 20260508051057 | 1 | 360 | 0.0 | 0.0 | 0.00 | 0.00 | 0.00 | 1 | 1008.7 |
| 20260508050915 | 1 | 360 | 0.0 | 0.0 | 0.00 | 0.00 | 0.00 | 1 | 1008.7 |
| 20260508050831 | 1 | 360 | 0.0 | 0.0 | 0.00 | 0.00 | 0.00 | 1 | 1008.8 |
| 20260508050640 | 1 | 360 | 0.0 | 0.0 | 0.00 | 0.00 | 0.00 | 1 | 1008.8 |
| 20260508050537 | 1 | 360 | 0.0 | 0.0 | 0.00 | 0.00 | 0.00 | 1 | 1008.8 |
| 20260508050424 | 1 | 360 | 0.0 | 0.0 | 0.00 | 0.00 | 0.00 | 1 | 1008.8 |
| 20260508050345 | 1 | 360 | 0.0 | 0.0 | 0.00 | 0.00 | 0.00 | 1 | 1008.8 |
| 20260508050306 | 1 | 360 | 0.0 | 0.0 | 0.00 | 0.00 | 0.00 | 1 | 1008.8 |
| 20260508050138 | 1 | 360 | 0.0 | 0.0 | 0.00 | 0.00 | 0.00 | 1 | 1008.8 |
| 20260508050031 | 1 | 360 | 0.0 | 0.0 | 0.00 | 0.00 | 0.00 | 1 | 1008.8 |
| 20260508045840 | 1 | 360 | 0.0 | 0.0 | 0.00 | 0.00 | 0.00 | 1 | 1008.8 |
| 20260508045733 | 1 | 360 | 0.0 | 0.0 | 0.00 | 0.00 | 0.00 | 1 | 1008.9 |
| 20260508045656 | 1 | 360 | 0.0 | 0.0 | 0.00 | 0.00 | 0.00 | 1 | 1008.9 |
| 20260508045602 | 1 | 360 | 0.0 | 0.0 | 0.00 | 0.00 | 0.00 | 1 | 1008.8 |
| 20260508045523 | 1 | 360 | 0.0 | 0.0 | 0.00 | 0.00 | 0.00 | 1 | 1008.8 |
| 20260508045331 | 1 | 360 | 0.0 | 0.0 | 0.00 | 0.00 | 0.00 | 1 | 1008.8 |
| 20260508045232 | 1 | 360 | 0.0 | 0.0 | 0.00 | 0.00 | 0.00 | 1 | 1008.9 |
| 20260508045134 | 1 | 360 | 0.0 | 0.0 | 0.00 | 0.00 | 0.00 | 1 | 1008.9 |
| 20260508045056 | 1 | 360 | 0.0 | 0.0 | 0.00 | 0.00 | 0.00 | 1 | 1008.9 |
| 20260508045017 | 1 | 360 | 0.0 | 0.0 | 0.00 | 0.00 | 0.00 | 1 | 1008.8 |
| 20260508044920 | 1 | 360 | 0.0 | 0.0 | 0.00 | 0.00 | 0.00 | 1 | 1008.9 |
| 20260508044840 | 1 | 360 | 0.0 | 0.0 | 0.00 | 0.00 | 0.00 | 1 | 1008.9 |
| 20260508044710 | 1 | 360 | 0.0 | 0.0 | 0.00 | 0.00 | 0.00 | 1 | 1008.9 |
| 20260508044626 | 1 | 360 | 0.0 | 0.0 | 0.00 | 0.00 | 0.00 | 1 | 1008.9 |
| 20260508044456 | 1 | 360 | 0.0 | 0.0 | 0.00 | 0.00 | 0.00 | 1 | 1008.9 |
| 20260508044358 | 1 | 360 | 0.0 | 0.0 | 0.00 | 0.00 | 0.00 | 1 | 1008.9 |
| 20260508044311 | 1 | 360 | 0.0 | 0.0 | 0.00 | 0.00 | 0.00 | 1 | 1008.8 |
| 20260508044134 | 1 | 360 | 0.0 | 0.0 | 0.00 | 0.00 | 0.00 | 1 | 1008.9 |
| 20260508044034 | 1 | 360 | 0.0 | 0.0 | 0.00 | 0.00 | 0.00 | 1 | 1008.9 |
| 20260508043940 | 1 | 360 | 0.0 | 0.0 | 0.00 | 0.00 | 0.00 | 1 | 1008.9 |
| 20260508043840 | 1 | 360 | 0.0 | 0.0 | 0.00 | 0.00 | 0.00 | 1 | 1008.9 |
| 20260508043708 | 1 | 360 | 0.0 | 0.0 | 0.00 | 0.00 | 0.00 | 1 | 1008.9 |
| 20260508043624 | 1 | 360 | 0.0 | 0.0 | 0.00 | 0.00 | 0.00 | 1 | 1009.0 |
| 20260508043433 | 1 | 360 | 0.0 | 0.0 | 0.00 | 0.00 | 0.00 | 1 | 1009.0 |
| 20260508043327 | 1 | 360 | 0.0 | 0.0 | 0.00 | 0.00 | 0.00 | 1 | 1008.9 |
| 20260508043249 | 1 | 360 | 0.0 | 0.0 | 0.00 | 0.00 | 0.00 | 1 | 1008.9 |
| 20260508043126 | 1 | 360 | 0.0 | 0.0 | 0.00 | 0.00 | 0.00 | 1 | 1009.0 |
| 20260508043041 | 1 | 360 | 0.0 | 0.0 | 0.00 | 0.00 | 0.00 | 1 | 1009.0 |
| 20260508042911 | 1 | 360 | 0.0 | 0.0 | 0.00 | 0.00 | 0.00 | 1 | 1009.0 |
| 20260508042833 | 1 | 360 | 0.0 | 0.0 | 0.00 | 0.00 | 0.00 | 1 | 1009.0 |
| 20260508042635 | 1 | 360 | 0.0 | 0.0 | 0.00 | 0.00 | 0.00 | 1 | 1009.0 |
| 20260508042559 | 1 | 360 | 0.0 | 0.0 | 0.00 | 0.00 | 0.00 | 1 | 1009.0 |
| 20260508042424 | 1 | 360 | 0.0 | 1.6 | 0.00 | 0.00 | 0.00 | 1 | 1009.0 |
| 20260508042338 | 1 | 360 | 0.0 | 1.6 | 0.00 | 0.00 | 0.00 | 1 | 1009.0 |
| 20260508042245 | 1 | 360 | 0.0 | 1.6 | 0.00 | 0.00 | 0.00 | 1 | 1009.0 |
| 20260508042207 | 1 | 360 | 0.0 | 1.6 | 0.00 | 0.00 | 0.00 | 1 | 1009.0 |
| 20260508042122 | 1 | 360 | 0.0 | 1.6 | 0.00 | 0.00 | 0.00 | 1 | 1009.0 |
| 20260508041934 | 1 | 360 | 0.0 | 1.6 | 0.00 | 0.00 | 0.00 | 1 | 1009.0 |
| 20260508041827 | 1 | 360 | 0.0 | 1.6 | 0.00 | 0.00 | 0.00 | 1 | 1009.0 |
| 20260508041749 | 1 | 360 | 0.0 | 1.6 | 0.00 | 0.00 | 0.00 | 1 | 1009.0 |
| 20260508041654 | 1 | 360 | 0.0 | 1.6 | 0.00 | 0.00 | 0.00 | 1 | 1009.0 |
| 20260508041617 | 1 | 360 | 0.0 | 1.6 | 0.00 | 0.00 | 0.00 | 1 | 1009.0 |
| 20260508041446 | 1 | 360 | 0.0 | 1.6 | 0.00 | 0.00 | 0.00 | 1 | 1009.0 |
| 20260508041342 | 1 | 360 | 0.0 | 1.6 | 0.00 | 0.00 | 0.00 | 1 | 1009.0 |
| 20260508041304 | 1 | 360 | 0.0 | 1.6 | 0.00 | 0.00 | 0.00 | 1 | 1008.9 |
| 20260508041208 | 1 | 360 | 0.0 | 1.6 | 0.00 | 0.00 | 0.00 | 1 | 1009.0 |
| 20260508041123 | 1 | 360 | 0.0 | 1.6 | 0.00 | 0.00 | 0.00 | 1 | 1009.0 |
| 20260508040933 | 1 | 360 | 0.0 | 1.6 | 0.00 | 0.00 | 0.00 | 1 | 1009.0 |
| 20260508040849 | 1 | 360 | 0.0 | 1.6 | 0.00 | 0.00 | 0.00 | 1 | 1009.0 |
| 20260508040822 | 1 | 360 | 0.0 | 1.6 | 0.00 | 0.00 | 0.00 | 1 | 1008.9 |
| 20260508040634 | 1 | 360 | 0.0 | 1.6 | 0.00 | 0.00 | 0.00 | 1 | 1009.0 |
| 20260508040527 | 1 | 360 | 0.0 | 0.0 | 0.00 | 0.00 | 0.00 | 1 | 1008.9 |
| 20260508040452 | 1 | 360 | 0.0 | 0.0 | 0.00 | 0.00 | 0.00 | 1 | 1008.9 |
| 20260508040355 | 1 | 360 | 0.0 | 0.0 | 0.00 | 0.00 | 0.00 | 1 | 1009.0 |
| 20260508040242 | 1 | 360 | 0.0 | 0.0 | 0.00 | 0.00 | 0.00 | 1 | 1009.0 |
| 20260508040125 | 1 | 360 | 0.0 | 0.0 | 0.00 | 0.00 | 0.00 | 1 | 1009.0 |
| 20260508040049 | 1 | 360 | 0.0 | 0.0 | 0.00 | 0.00 | 0.00 | 1 | 1009.0 |
| 20260508035924 | 1 | 360 | 0.0 | 0.0 | 0.00 | 0.00 | 0.00 | 1 | 1008.9 |
| 20260508035830 | 1 | 360 | 0.0 | 0.0 | 0.00 | 0.00 | 0.00 | 1 | 1008.9 |
| 20260508035750 | 1 | 360 | 0.0 | 0.0 | 0.00 | 0.00 | 0.00 | 1 | 1008.9 |
| 20260508035622 | 1 | 360 | 0.0 | 0.0 | 0.00 | 0.00 | 0.00 | 1 | 1008.9 |
| 20260508035536 | 1 | 360 | 0.0 | 0.0 | 0.00 | 0.00 | 0.00 | 1 | 1008.9 |
| 20260508035326 | 1 | 360 | 0.0 | 0.0 | 0.00 | 0.00 | 0.00 | 1 | 1008.9 |
| 20260508035223 | 1 | 360 | 0.0 | 0.0 | 0.00 | 0.00 | 0.00 | 1 | 1008.8 |
| 20260508035146 | 2 | 360 | 0.0 | 0.0 | 0.00 | 0.00 | 0.00 | 1 | 1008.8 |
| 20260508035041 | 1 | 360 | 0.0 | 0.0 | 0.00 | 0.00 | 0.00 | 1 | 1008.8 |
| 20260508034945 | 2 | 360 | 0.0 | 0.0 | 0.00 | 0.00 | 0.00 | 1 | 1008.8 |
| 20260508034828 | 2 | 360 | 0.0 | 0.0 | 0.00 | 0.00 | 0.00 | 1 | 1008.9 |
| 20260508034750 | 2 | 360 | 0.0 | 0.0 | 0.00 | 0.00 | 0.00 | 1 | 1008.9 |
| 20260508034632 | 2 | 360 | 0.0 | 0.0 | 0.00 | 0.00 | 0.00 | 1 | 1008.9 |
| 20260508034554 | 2 | 360 | 0.0 | 0.0 | 0.00 | 0.00 | 0.00 | 1 | 1008.9 |
| 20260508034517 | 2 | 360 | 0.0 | 0.0 | 0.00 | 0.00 | 0.00 | 1 | 1008.9 |
| 20260508034344 | 2 | 360 | 0.0 | 0.0 | 0.00 | 0.00 | 0.00 | 1 | 1008.9 |
| 20260508034225 | 2 | 360 | 0.0 | 0.0 | 0.00 | 0.00 | 0.00 | 1 | 1008.9 |
| 20260508034139 | 2 | 360 | 0.0 | 0.0 | 0.00 | 0.00 | 0.00 | 1 | 1008.9 |
| 20260508034040 | 2 | 360 | 0.0 | 0.0 | 0.00 | 0.00 | 0.00 | 1 | 1008.9 |
| 20260508033943 | 2 | 360 | 0.0 | 0.0 | 0.00 | 0.00 | 0.00 | 1 | 1008.9 |
| 20260508033846 | 2 | 360 | 0.0 | 0.0 | 0.00 | 0.00 | 0.00 | 1 | 1008.9 |
| 20260508033807 | 2 | 360 | 0.0 | 0.0 | 0.00 | 0.00 | 0.00 | 1 | 1008.8 |
| 20260508033641 | 2 | 360 | 0.0 | 0.0 | 0.00 | 0.00 | 0.00 | 1 | 1008.9 |
| 20260508033543 | 2 | 360 | 0.0 | 0.0 | 0.00 | 0.00 | 0.00 | 1 | 1008.9 |
| 20260508033429 | 2 | 360 | 0.0 | 0.0 | 0.00 | 0.00 | 0.00 | 1 | 1008.9 |
| 20260508033349 | 2 | 360 | 0.0 | 0.0 | 0.00 | 0.00 | 0.00 | 1 | 1008.9 |
| 20260508033220 | 2 | 360 | 0.0 | 0.0 | 0.00 | 0.00 | 0.00 | 1 | 1008.8 |
| 20260508033115 | 2 | 360 | 0.0 | 0.0 | 0.00 | 0.00 | 0.00 | 1 | 1008.8 |
| 20260508032924 | 2 | 360 | 0.0 | 0.0 | 0.00 | 0.00 | 0.00 | 1 | 1008.8 |
| 20260508032839 | 2 | 360 | 0.0 | 0.0 | 0.00 | 0.00 | 0.00 | 1 | 1008.8 |
| 20260508032709 | 2 | 360 | 0.0 | 0.0 | 0.00 | 0.00 | 0.00 | 1 | 1008.8 |
| 20260508032630 | 2 | 360 | 0.0 | 0.0 | 0.00 | 0.00 | 0.00 | 1 | 1008.9 |
| 20260508032433 | 2 | 360 | 0.0 | 1.6 | 0.00 | 0.00 | 0.00 | 1 | 1008.9 |
| 20260508032357 | 2 | 360 | 0.0 | 1.6 | 0.00 | 0.00 | 0.00 | 1 | 1008.9 |
| 20260508032225 | 2 | 360 | 0.0 | 1.6 | 0.00 | 0.00 | 0.00 | 1 | 1008.9 |
| 20260508032141 | 2 | 360 | 0.0 | 1.6 | 0.00 | 0.00 | 0.00 | 1 | 1008.9 |
| 20260508031929 | 2 | 360 | 0.0 | 1.6 | 0.00 | 0.00 | 0.00 | 1 | 1008.8 |
| 20260508031842 | 2 | 360 | 0.0 | 1.6 | 0.00 | 0.00 | 0.00 | 1 | 1008.9 |
| 20260508031714 | 2 | 360 | 0.0 | 1.6 | 0.00 | 0.00 | 0.00 | 1 | 1008.8 |
| 20260508031636 | 2 | 360 | 0.0 | 0.0 | 0.00 | 0.00 | 0.00 | 1 | 1008.8 |
| 20260508031506 | 2 | 360 | 0.0 | 0.0 | 0.00 | 0.00 | 0.00 | 1 | 1008.8 |
| 20260508031420 | 2 | 360 | 0.0 | 0.0 | 0.00 | 0.00 | 0.00 | 1 | 1008.8 |
| 20260508031231 | 2 | 360 | 0.0 | 0.0 | 0.00 | 0.00 | 0.00 | 1 | 1008.8 |
| 20260508031145 | 2 | 360 | 0.0 | 0.0 | 0.00 | 0.00 | 0.00 | 1 | 1008.8 |
| 20260508031020 | 2 | 360 | 0.0 | 0.0 | 0.00 | 0.00 | 0.00 | 1 | 1008.8 |
| 20260508030941 | 2 | 360 | 0.0 | 0.0 | 0.00 | 0.00 | 0.00 | 1 | 1008.8 |
| 20260508030805 | 2 | 360 | 0.0 | 0.0 | 0.00 | 0.00 | 0.00 | 1 | 1008.7 |
| 20260508030728 | 2 | 360 | 0.0 | 0.0 | 0.00 | 0.00 | 0.00 | 1 | 1008.6 |
| 20260508030557 | 2 | 360 | 0.0 | 0.0 | 0.00 | 0.00 | 0.00 | 1 | 1008.7 |
| 20260508030500 | 2 | 360 | 0.0 | 0.0 | 0.00 | 0.00 | 0.00 | 1 | 1008.7 |
| 20260508030416 | 2 | 360 | 0.0 | 0.0 | 0.00 | 0.00 | 0.00 | 1 | 1008.7 |
| 20260508030225 | 2 | 360 | 0.0 | 0.0 | 0.00 | 0.00 | 0.00 | 1 | 1008.7 |
| 20260508030139 | 2 | 360 | 0.0 | 0.0 | 0.00 | 0.00 | 0.00 | 1 | 1008.7 |
| 20260508030041 | 2 | 360 | 0.0 | 0.0 | 0.00 | 0.00 | 0.00 | 1 | 1008.7 |
| 20260508025945 | 2 | 360 | 0.0 | 0.0 | 0.00 | 0.00 | 0.00 | 1 | 1008.7 |
| 20260508025850 | 2 | 360 | 0.0 | 0.0 | 0.00 | 0.00 | 0.00 | 1 | 1008.7 |
| 20260508025721 | 2 | 360 | 0.0 | 0.0 | 0.00 | 0.00 | 0.00 | 1 | 1008.7 |
| 20260508025635 | 2 | 360 | 0.0 | 0.0 | 0.00 | 0.00 | 0.00 | 1 | 1008.8 |
| 20260508025506 | 2 | 360 | 0.0 | 0.0 | 0.00 | 0.00 | 0.00 | 1 | 1008.8 |
| 20260508025428 | 2 | 360 | 0.0 | 0.0 | 0.00 | 0.00 | 0.00 | 1 | 1008.8 |
| 20260508025230 | 2 | 360 | 0.0 | 0.0 | 0.00 | 0.00 | 0.00 | 1 | 1008.8 |
| 20260508025151 | 2 | 360 | 0.0 | 0.0 | 0.00 | 0.00 | 0.00 | 1 | 1008.8 |
| 20260508025036 | 2 | 360 | 0.0 | 0.0 | 0.00 | 0.00 | 0.00 | 1 | 1008.7 |
| 20260508024930 | 2 | 360 | 0.0 | 0.0 | 0.00 | 0.00 | 0.00 | 1 | 1008.8 |
| 20260508024852 | 2 | 360 | 0.0 | 0.0 | 0.00 | 0.00 | 0.00 | 1 | 1008.8 |
| 20260508024818 | 2 | 360 | 0.0 | 0.0 | 0.00 | 0.00 | 0.00 | 1 | 1008.8 |
| 20260508024719 | 2 | 360 | 0.0 | 0.0 | 0.00 | 0.00 | 0.00 | 1 | 1008.8 |
| 20260508024521 | 2 | 360 | 0.0 | 0.0 | 0.00 | 0.00 | 0.00 | 1 | 1008.9 |
| 20260508024445 | 2 | 360 | 0.0 | 0.0 | 0.00 | 0.00 | 0.00 | 1 | 1008.9 |
| 20260508024349 | 2 | 360 | 0.0 | 0.0 | 0.00 | 0.00 | 0.00 | 1 | 1008.9 |
| 20260508024310 | 2 | 360 | 0.0 | 0.0 | 0.00 | 0.00 | 0.00 | 1 | 1008.9 |
| 20260508024118 | 2 | 360 | 0.0 | 0.0 | 0.00 | 0.00 | 0.00 | 1 | 1008.9 |
| 20260508024011 | 2 | 360 | 0.0 | 0.0 | 0.00 | 0.00 | 0.00 | 1 | 1008.9 |
| 20260508023818 | 2 | 360 | 0.0 | 0.0 | 0.00 | 0.00 | 0.00 | 1 | 1008.9 |
| 20260508023740 | 2 | 360 | 0.0 | 0.0 | 0.00 | 0.00 | 0.00 | 1 | 1008.9 |
| 20260508023550 | 2 | 360 | 0.0 | 0.0 | 0.00 | 0.00 | 0.00 | 1 | 1008.9 |
| 20260508023429 | 2 | 360 | 0.0 | 0.0 | 0.00 | 0.00 | 0.00 | 1 | 1008.8 |
| 20260508023332 | 2 | 360 | 0.0 | 0.0 | 0.00 | 0.00 | 0.00 | 1 | 1008.8 |
| 20260508023306 | 2 | 360 | 0.0 | 0.0 | 0.00 | 0.00 | 0.00 | 1 | 1008.8 |
| 20260508023204 | 2 | 360 | 0.0 | 0.0 | 0.00 | 0.00 | 0.00 | 1 | 1008.9 |
| 20260508023108 | 2 | 360 | 0.0 | 0.0 | 0.00 | 0.00 | 0.00 | 1 | 1008.8 |
| 20260508023030 | 2 | 360 | 0.0 | 0.0 | 0.00 | 0.00 | 0.00 | 1 | 1008.9 |
| 20260508022834 | 2 | 360 | 0.0 | 0.0 | 0.00 | 0.00 | 0.00 | 1 | 1008.9 |
| 20260508022736 | 2 | 360 | 0.0 | 0.0 | 0.00 | 0.00 | 0.00 | 1 | 1008.9 |
| 20260508022639 | 2 | 360 | 0.0 | 0.0 | 0.00 | 0.00 | 0.00 | 1 | 1008.9 |
| 20260508022547 | 2 | 360 | 0.0 | 0.0 | 0.00 | 0.00 | 0.00 | 1 | 1008.9 |
| 20260508022510 | 2 | 360 | 0.0 | 0.0 | 0.00 | 0.00 | 0.00 | 1 | 1008.9 |
| 20260508022332 | 2 | 360 | 0.0 | 0.0 | 0.00 | 0.00 | 0.00 | 1 | 1008.9 |
| 20260508022255 | 2 | 360 | 0.0 | 0.0 | 0.00 | 0.00 | 0.00 | 1 | 1008.9 |
| 20260508022130 | 2 | 360 | 0.0 | 0.0 | 0.00 | 0.00 | 0.00 | 1 | 1008.9 |
| 20260508022002 | 2 | 360 | 0.0 | 0.0 | 0.00 | 0.00 | 0.00 | 1 | 1008.8 |
| 20260508021835 | 2 | 360 | 0.0 | 0.0 | 0.00 | 0.00 | 0.00 | 1 | 1008.8 |
| 20260508021756 | 2 | 360 | 0.0 | 0.0 | 0.00 | 0.00 | 0.00 | 1 | 1008.8 |
| 20260508021640 | 2 | 360 | 0.0 | 0.0 | 0.00 | 0.00 | 0.00 | 1 | 1008.8 |
| 20260508021608 | 2 | 360 | 0.0 | 0.0 | 0.00 | 0.00 | 0.00 | 1 | 1008.8 |
| 20260508021423 | 2 | 360 | 0.0 | 0.0 | 0.00 | 0.00 | 0.00 | 1 | 1008.8 |
| 20260508021326 | 2 | 360 | 0.0 | 0.0 | 0.00 | 0.00 | 0.00 | 1 | 1008.8 |
| 20260508021249 | 2 | 360 | 0.0 | 0.0 | 0.00 | 0.00 | 0.00 | 1 | 1008.8 |
| 20260508021209 | 3 | 360 | 0.0 | 0.0 | 0.00 | 0.00 | 0.00 | 1 | 1008.8 |
| 20260508021054 | 3 | 360 | 0.0 | 0.0 | 0.00 | 0.00 | 0.00 | 1 | 1008.8 |
| 20260508020935 | 3 | 360 | 0.0 | 0.0 | 0.00 | 0.00 | 0.00 | 1 | 1008.8 |
| 20260508020838 | 3 | 360 | 0.0 | 0.0 | 0.00 | 0.00 | 0.00 | 1 | 1008.8 |
| 20260508020802 | 3 | 360 | 0.0 | 0.0 | 0.00 | 0.00 | 0.00 | 1 | 1008.8 |
| 20260508020724 | 3 | 360 | 0.0 | 0.0 | 0.00 | 0.00 | 0.00 | 1 | 1008.8 |
| 20260508020610 | 3 | 360 | 0.0 | 0.0 | 0.00 | 0.00 | 0.00 | 1 | 1008.7 |
| 20260508020424 | 3 | 360 | 0.0 | 0.0 | 0.00 | 0.00 | 0.00 | 1 | 1008.7 |
| 20260508020329 | 3 | 360 | 0.0 | 0.0 | 0.00 | 0.00 | 0.00 | 1 | 1008.7 |
| 20260508020250 | 3 | 360 | 0.0 | 0.0 | 0.00 | 0.00 | 0.00 | 1 | 1008.7 |
| 20260508020031 | 3 | 360 | 0.0 | 0.0 | 0.00 | 0.00 | 0.00 | 1 | 1008.6 |
| 20260508015934 | 3 | 360 | 0.0 | 0.0 | 0.00 | 0.03 | 0.00 | 1 | 1008.6 |
| 20260508015837 | 3 | 360 | 0.0 | 0.0 | 0.00 | 0.03 | 0.00 | 1 | 1008.8 |
| 20260508015759 | 3 | 360 | 0.0 | 0.0 | 0.00 | 0.03 | 0.00 | 1 | 1008.8 |
| 20260508015719 | 3 | 360 | 0.0 | 0.0 | 0.00 | 0.03 | 0.00 | 1 | 1008.7 |
| 20260508015536 | 3 | 360 | 0.0 | 0.0 | 0.00 | 0.03 | 0.00 | 1 | 1008.7 |
| 20260508015459 | 3 | 360 | 0.0 | 0.0 | 0.00 | 0.03 | 0.00 | 1 | 1008.7 |
| 20260508015325 | 3 | 360 | 0.0 | 0.0 | 0.00 | 0.03 | 0.00 | 1 | 1008.6 |
| 20260508015239 | 3 | 360 | 0.0 | 0.0 | 0.00 | 0.03 | 0.00 | 1 | 1008.6 |
| 20260508015109 | 3 | 360 | 0.0 | 0.0 | 0.00 | 0.03 | 0.00 | 1 | 1008.6 |
| 20260508015030 | 3 | 360 | 0.0 | 0.0 | 0.00 | 0.03 | 0.00 | 1 | 1008.6 |
| 20260508014813 | 3 | 360 | 0.0 | 0.0 | 0.00 | 0.03 | 0.00 | 1 | 1008.6 |
| 20260508014746 | 3 | 360 | 0.0 | 0.0 | 0.00 | 0.03 | 0.00 | 1 | 1008.6 |
| 20260508014614 | 3 | 360 | 0.0 | 0.0 | 0.00 | 0.03 | 0.00 | 1 | 1008.6 |
| 20260508014540 | 3 | 360 | 0.0 | 0.0 | 0.00 | 0.03 | 0.00 | 1 | 1008.6 |
| 20260508014442 | 3 | 360 | 0.0 | 0.0 | 0.00 | 0.03 | 0.00 | 1 | 1008.5 |
| 20260508014325 | 3 | 360 | 0.0 | 0.0 | 0.00 | 0.03 | 0.00 | 1 | 1008.5 |
| 20260508014248 | 3 | 360 | 0.0 | 0.0 | 0.00 | 0.03 | 0.00 | 1 | 1008.5 |
| 20260508014123 | 3 | 360 | 0.0 | 1.6 | 0.00 | 0.03 | 0.00 | 1 | 1008.5 |
| 20260508014026 | 3 | 360 | 0.0 | 1.6 | 0.00 | 0.03 | 0.00 | 1 | 1008.5 |
| 20260508013953 | 3 | 360 | 0.0 | 1.6 | 0.00 | 0.03 | 0.00 | 1 | 1008.5 |
| 20260508013735 | 3 | 360 | 0.0 | 1.6 | 0.00 | 0.03 | 0.00 | 1 | 1008.5 |
| 20260508013638 | 3 | 360 | 0.0 | 1.6 | 0.00 | 0.03 | 0.00 | 1 | 1008.4 |
| 20260508013541 | 3 | 360 | 0.0 | 1.6 | 0.00 | 0.03 | 0.00 | 1 | 1008.5 |
| 20260508013505 | 3 | 360 | 0.0 | 1.6 | 0.00 | 0.03 | 0.00 | 1 | 1008.5 |
| 20260508013426 | 3 | 360 | 0.0 | 1.6 | 0.00 | 0.03 | 0.00 | 1 | 1008.4 |
| 20260508013228 | 4 | 360 | 0.0 | 1.6 | 0.00 | 0.03 | 0.00 | 1 | 1008.4 |
| 20260508013151 | 4 | 360 | 0.0 | 0.0 | 0.00 | 0.03 | 0.00 | 1 | 1008.4 |
| 20260508013034 | 4 | 360 | 0.0 | 0.0 | 0.00 | 0.03 | 0.00 | 1 | 1008.3 |
| 20260508013000 | 4 | 360 | 0.0 | 0.0 | 0.00 | 0.03 | 0.00 | 1 | 1008.3 |
| 20260508012923 | 4 | 360 | 0.0 | 0.0 | 0.00 | 0.03 | 0.00 | 1 | 1008.4 |
| 20260508012724 | 4 | 360 | 0.0 | 0.0 | 0.00 | 0.03 | 0.00 | 1 | 1008.4 |
| 20260508012648 | 4 | 360 | 0.0 | 0.0 | 0.00 | 0.03 | 0.00 | 1 | 1008.4 |
| 20260508012532 | 4 | 360 | 0.0 | 0.0 | 0.00 | 0.03 | 0.00 | 1 | 1008.4 |
| 20260508012455 | 4 | 360 | 0.0 | 0.0 | 0.00 | 0.03 | 0.00 | 1 | 1008.4 |
| 20260508012340 | 4 | 360 | 0.0 | 0.0 | 0.00 | 0.03 | 0.00 | 1 | 1008.4 |
| 20260508012239 | 4 | 360 | 0.0 | 0.0 | 0.00 | 0.03 | 0.00 | 1 | 1008.4 |
| 20260508012111 | 4 | 360 | 0.0 | 1.6 | 0.00 | 0.03 | 0.00 | 1 | 1008.4 |
| 20260508012005 | 4 | 360 | 0.0 | 1.6 | 0.00 | 0.03 | 0.00 | 1 | 1008.4 |
| 20260508011925 | 4 | 360 | 0.0 | 1.6 | 0.00 | 0.03 | 0.00 | 1 | 1008.4 |
| 20260508011738 | 4 | 360 | 0.0 | 1.6 | 0.00 | 0.03 | 0.00 | 1 | 1008.4 |
| 20260508011631 | 4 | 360 | 0.0 | 1.6 | 0.00 | 0.03 | 0.00 | 1 | 1008.4 |
| 20260508011442 | 5 | 360 | 0.0 | 1.6 | 0.00 | 0.03 | 0.00 | 1 | 1008.4 |
| 20260508011339 | 5 | 360 | 0.0 | 1.6 | 0.00 | 0.03 | 0.00 | 1 | 1008.3 |
| 20260508011233 | 5 | 360 | 0.0 | 1.6 | 0.00 | 0.03 | 0.00 | 2 | 1008.3 |
| 20260508011134 | 5 | 360 | 0.0 | 0.0 | 0.00 | 0.03 | 0.00 | 2 | 1008.3 |
| 20260508011050 | 5 | 360 | 0.0 | 0.0 | 0.00 | 0.03 | 0.00 | 2 | 1008.3 |
| 20260508010951 | 5 | 360 | 0.0 | 0.0 | 0.00 | 0.03 | 0.00 | 2 | 1008.3 |
| 20260508010825 | 5 | 360 | 0.0 | 0.0 | 0.00 | 0.03 | 0.00 | 4 | 1008.2 |
| 20260508010718 | 5 | 360 | 0.0 | 0.0 | 0.00 | 0.03 | 0.00 | 5 | 1008.2 |
| 20260508010530 | 5 | 360 | 0.0 | 0.0 | 0.00 | 0.03 | 0.00 | 7 | 1008.2 |
| 20260508010444 | 5 | 360 | 0.0 | 0.0 | 0.00 | 0.03 | 0.00 | 7 | 1008.2 |
| 20260508010314 | 5 | 360 | 0.0 | 0.0 | 0.00 | 0.03 | 0.00 | 7 | 1008.2 |
| 20260508010236 | 5 | 360 | 0.0 | 0.0 | 0.00 | 0.03 | 0.00 | 8 | 1008.2 |
| 20260508010100 | 5 | 360 | 0.0 | 0.0 | 0.00 | 0.03 | 0.00 | 8 | 1008.2 |
| 20260508010022 | 5 | 360 | 0.0 | 0.0 | 0.00 | 0.03 | 0.00 | 8 | 1008.2 |